GFSMW_sfc_30mbdewp_021.txt.gz
Dewpoint
38 39 41 42 44 48 51 53 53 54 55 55 55 52 50 47 45 42 40 40 39 39 39 39 38 38 38 37 38 38 39 39 39 38 38 38 38 38 38 39 37 37 38
37 38 39 39 40 42 46 51 53 55 55 52 50 48 46 44 43 42 40 37 36 36 35 36 36 36 36 36 35 35 35 35 34 33 33 32 33 35 35 32 34 34 36
36 37 39 41 41 42 43 45 46 46 47 47 46 45 45 43 40 39 38 36 34 30 30 31 30 30 30 30 30 29 30 29 30 30 30 28 27 32 32 32 32 32 31
35 37 39 41 43 44 44 44 44 44 44 44 44 42 40 38 38 37 36 34 33 29 24 24 25 25 24 24 25 23 24 25 27 28 25 30 31 30 29 28 29 28 25
35 38 40 42 44 45 44 43 42 41 41 40 39 38 37 36 35 33 32 29 28 25 22 19 19 19 20 21 21 21 22 24 27 27 26 27 29 31 26 23 23 23 22
36 39 42 43 45 45 43 41 40 39 38 38 37 36 34 33 32 29 26 24 22 21 19 17 15 15 17 18 17 19 22 26 30 27 25 25 29 26 22 21 22 23 26
38 40 41 42 43 43 42 39 38 36 35 34 33 32 31 29 26 23 21 19 17 16 16 14 13 13 15 15 16 20 23 24 26 25 22 21 23 24 21 22 24 25 28
38 39 40 42 43 43 40 38 37 34 32 30 28 27 27 24 21 18 17 15 14 12 12 12 11 10 11 11 13 17 20 19 18 20 19 20 21 21 22 23 25 25 24
38 38 41 42 42 41 40 39 36 33 30 27 25 22 19 18 17 14 14 13 11 8 8 10 9 9 9 9 11 13 12 13 14 16 18 18 20 22 22 25 24 22 19
38 39 40 41 41 40 38 37 34 31 27 25 22 19 15 13 12 12 10 10 8 7 8 7 7 7 7 8 9 10 11 11 12 14 16 18 19 19 22 23 21 20 19
38 39 40 41 40 39 37 35 32 28 25 23 20 17 14 12 11 10 8 7 6 6 6 6 7 7 7 7 8 9 9 9 13 15 16 17 18 19 19 20 20 20 20
38 39 40 41 39 37 35 33 31 27 24 20 17 15 14 13 11 9 7 6 6 6 7 7 8 8 8 9 9 9 9 10 13 15 17 17 17 19 20 20 19 20 21
38 38 40 39 38 36 33 31 29 25 21 17 15 14 13 12 9 7 8 7 7 7 8 9 9 9 9 9 9 9 9 13 15 16 17 18 19 19 19 20 21 21 22
38 38 40 39 37 35 32 29 27 23 18 15 14 14 12 11 10 9 9 9 8 9 10 10 11 11 9 9 9 10 15 17 17 19 19 19 18 18 19 20 22 24 26
38 38 40 39 37 34 31 27 25 20 16 13 13 12 12 10 10 10 10 9 10 11 11 11 11 10 10 7 12 16 18 19 20 19 19 17 19 19 19 19 22 25 27
38 38 40 39 37 33 30 26 22 17 14 11 10 10 9 9 10 10 10 10 11 11 12 11 11 10 9 10 14 18 20 20 20 19 18 17 18 17 18 21 22 23 22
37 38 40 40 37 33 29 25 19 14 12 10 8 8 8 8 9 9 8 9 10 11 11 10 10 9 10 12 15 18 21 21 19 17 17 16 16 18 22 23 23 22 22
37 39 40 39 35 31 28 21 15 13 10 9 7 7 7 7 7 7 8 9 10 10 10 10 10 10 9 11 15 19 21 19 19 17 17 17 19 22 22 21 27 28 27
39 40 40 36 32 28 21 17 13 10 8 8 6 6 6 7 7 7 8 10 10 10 10 10 10 9 8 11 16 19 20 20 19 18 18 20 21 21 21 25 28 22 18
39 39 36 31 28 23 19 17 12 7 7 6 6 6 7 7 6 7 9 10 10 10 10 9 8 7 9 13 17 19 20 20 19 20 23 21 19 20 25 25 18 18 17
35 32 30 28 22 18 17 14 9 7 6 7 7 7 7 7 8 9 10 11 10 10 9 7 7 9 12 14 17 18 19 20 20 24 22 21 19 24 24 16 16 16 22
31 29 27 22 19 16 15 10 7 7 7 8 8 8 8 8 9 9 10 9 9 8 6 7 10 13 13 15 17 18 19 19 22 23 21 20 29 20 15 16 15 17 17
29 27 25 20 16 13 10 8 7 7 7 7 7 7 9 9 9 10 9 9 8 6 7 9 13 15 17 17 18 18 18 21 20 19 20 29 17 14 14 14 15 15 16
28 27 23 20 16 12 8 7 8 8 8 7 6 9 9 10 10 10 9 7 6 9 12 15 17 18 18 18 18 19 22 21 21 25 28 16 14 13 14 15 15 16 16
29 26 25 21 17 11 7 7 9 8 8 7 9 9 10 10 10 9 7 7 9 14 16 18 18 19 18 18 19 19 19 21 23 21 17 14 13 15 15 15 15 16 18
27 26 25 20 12 8 6 7 9 9 9 9 10 10 10 10 8 7 8 9 13 14 15 16 17 17 18 18 18 18 19 22 18 16 14 14 15 15 15 15 15 18 19

GFSMW_sfc_30mbdewp_024.txt.gz
Dewpoint
39 40 43 45 50 53 54 55 55 56 56 56 55 50 47 44 43 41 39 37 37 38 37 38 37 37 37 37 35 35 34 33 34 33 33 32 34 32 32 28 29 33 32
38 40 41 42 46 51 53 54 55 53 51 51 49 47 45 44 42 40 38 34 32 31 32 32 32 31 31 32 30 29 30 31 30 31 29 28 28 31 28 32 33 30 31
37 38 40 42 43 46 47 48 48 48 48 47 45 44 45 43 41 40 37 34 29 26 26 26 26 27 27 26 25 26 25 25 28 30 28 28 27 27 30 29 31 26 24
37 39 41 43 44 44 45 45 46 46 47 46 46 44 40 38 38 36 36 33 28 24 22 23 23 23 24 23 23 23 23 25 27 31 28 28 28 26 27 30 26 24 22
37 40 42 44 45 45 44 43 42 41 41 41 40 39 38 36 35 33 30 27 26 23 20 20 20 20 21 21 20 20 22 26 27 31 28 27 28 27 29 25 22 22 22
38 41 44 45 45 45 43 41 39 39 39 38 37 36 34 33 30 26 25 23 23 22 18 18 16 17 18 19 19 21 21 24 25 28 26 25 22 21 23 24 21 20 21
39 42 44 45 44 43 41 39 38 36 35 34 32 31 29 26 22 21 20 18 17 17 15 15 14 14 15 15 15 19 19 23 21 26 20 24 21 21 23 21 20 21 22
40 41 43 44 44 42 39 37 35 32 30 28 27 26 24 22 19 17 17 15 14 13 13 13 12 12 12 12 13 15 18 17 16 15 18 18 20 22 21 21 22 19 23
40 41 43 44 43 41 39 36 33 30 28 25 22 19 17 16 15 14 14 13 12 9 10 11 10 10 10 11 11 13 13 13 13 14 16 17 19 20 21 22 22 23 20
39 40 42 43 42 40 39 35 32 28 26 23 20 16 14 13 13 12 10 10 8 9 9 9 9 9 10 10 10 12 13 11 12 12 15 16 18 19 20 22 21 22 20
39 40 42 42 40 39 37 33 29 26 24 22 18 16 14 13 12 10 9 8 8 8 8 9 9 9 10 10 10 10 10 10 11 13 15 17 18 19 20 20 21 21 21
39 40 41 40 39 38 35 31 28 26 23 19 17 16 15 13 11 9 9 9 8 9 9 10 11 11 11 12 11 10 10 11 13 15 17 17 18 19 20 21 19 20 21
39 40 41 39 38 36 34 32 27 24 20 18 16 15 14 12 10 10 10 10 10 10 11 12 12 12 13 12 11 11 12 15 17 18 19 20 19 19 20 19 19 19 20
39 39 41 39 38 35 32 30 25 21 17 16 15 14 13 12 11 11 12 11 11 11 12 13 13 13 13 12 11 12 15 17 19 20 21 20 20 19 19 18 18 20 23
38 39 40 38 37 34 31 28 23 19 16 15 15 13 12 11 11 12 12 12 12 12 13 14 14 14 12 10 12 15 17 18 20 21 21 21 20 21 19 19 20 22 21
39 39 40 38 36 33 29 26 20 16 15 13 12 11 10 10 11 11 11 11 11 12 13 13 13 12 11 12 15 16 17 19 20 21 20 19 18 18 20 20 20 21 25
39 39 40 38 35 32 26 23 18 15 12 11 9 8 9 9 9 10 10 10 11 12 12 11 11 11 11 13 14 15 17 19 20 20 19 19 18 19 20 22 24 31 28
38 40 40 38 34 30 26 19 15 13 12 10 8 8 8 8 8 8 9 10 11 11 11 11 11 11 10 11 13 16 18 19 20 20 20 20 20 22 22 23 27 28 27
40 41 39 34 30 26 18 16 12 11 10 9 7 6 7 7 8 8 9 10 11 11 11 11 10 10 9 12 14 17 18 19 19 20 20 22 23 22 21 24 28 25 21
39 36 33 29 26 19 17 13 11 9 8 7 7 7 7 8 8 8 9 11 12 11 11 10 9 10 9 13 16 18 18 19 19 21 24 24 21 19 24 24 19 19 17
34 31 29 27 21 19 17 12 8 8 7 8 8 8 8 8 8 10 11 11 10 10 10 8 8 9 12 15 18 19 19 19 20 25 24 23 20 27 23 18 16 16 19
31 29 22 19 18 17 14 10 7 7 8 8 8 9 8 9 10 10 11 11 10 9 8 8 11 13 16 19 19 19 19 20 22 22 20 19 26 19 17 16 15 17 17
28 24 20 18 15 14 11 8 8 8 8 8 7 8 9 10 11 11 11 10 9 8 8 10 14 17 18 19 20 19 20 22 21 20 22 26 19 15 14 15 15 16 16
27 23 19 16 14 10 8 8 9 8 8 7 7 9 10 12 11 11 11 9 7 9 10 14 16 17 17 18 18 19 21 20 21 25 26 18 14 14 15 15 15 15 17
28 24 21 17 14 10 8 9 9 9 9 9 10 11 12 11 11 11 9 9 10 13 15 15 16 16 16 17 18 18 17 19 23 19 17 13 14 15 14 14 15 16 19
27 26 23 17 11 8 8 9 9 10 10 11 11 12 12 12 12 9 9 12 13 15 15 15 15 16 16 17 17 17 18 20 17 15 13 15 15 15 15 16 18 19 19

GFSMW_sfc_30mbdewp_027.txt.gz
Dewpoint
40 42 45 49 52 54 54 55 56 56 56 51 47 44 42 40 39 36 34 33 34 32 32 32 31 30 32 29 28 30 28 28 29 32 26 28 29 29 26 19 32 28 31
40 42 44 48 52 53 54 55 54 53 52 50 47 44 42 40 39 35 30 28 27 28 27 27 27 26 27 25 24 25 24 28 29 30 29 25 27 28 21 28 26 29 25
40 41 42 46 48 49 49 49 48 48 46 45 44 43 42 40 38 36 32 26 23 23 24 23 24 24 25 22 22 23 23 25 28 30 27 23 24 23 28 22 28 26 24
39 41 43 44 45 45 47 47 47 46 45 45 44 42 40 38 38 36 32 27 22 20 21 20 21 22 22 20 21 22 23 24 24 27 31 28 27 25 23 28 20 25 24
39 42 43 44 45 44 43 42 42 43 43 43 41 39 37 36 35 30 28 25 21 19 19 18 18 18 20 19 18 20 18 21 26 24 26 26 25 26 22 18 18 23 21
41 43 45 45 43 42 40 39 39 38 38 38 37 35 32 28 25 23 21 21 21 18 17 15 15 15 16 16 17 19 17 20 21 21 25 21 19 22 19 17 18 20 18
43 44 44 43 42 40 39 37 36 34 33 32 30 27 24 22 20 19 17 16 15 14 13 13 12 13 13 13 14 16 17 17 17 18 16 18 21 20 19 20 18 17 20
43 44 44 43 41 40 38 35 33 30 28 27 25 23 21 19 17 16 15 14 12 12 12 11 10 10 11 11 12 14 16 15 13 12 13 17 18 19 21 19 20 19 17
43 44 44 43 41 38 35 33 30 28 25 22 19 18 17 15 14 13 13 12 10 9 9 9 9 10 11 11 11 13 12 13 13 13 15 15 15 19 22 22 21 20 19
42 43 44 43 41 38 35 31 28 26 22 18 15 14 13 13 12 11 9 8 8 8 9 9 9 10 11 11 11 12 13 11 12 13 15 15 17 19 19 21 23 21 20
41 43 43 42 40 37 33 30 27 24 21 17 15 14 13 12 11 9 9 8 8 9 9 10 11 11 12 12 12 12 11 11 13 16 16 18 19 19 20 20 21 22 22
41 42 42 40 39 36 31 27 26 23 19 17 16 15 13 11 9 9 9 10 9 10 10 12 12 13 13 14 13 11 11 12 15 17 19 19 20 21 21 21 21 20 20
41 42 40 39 38 34 30 27 25 20 18 17 15 14 12 11 10 10 11 11 11 11 12 13 13 13 14 15 13 12 12 15 17 19 20 20 21 21 21 21 20 20 20
40 41 39 38 37 34 31 26 22 19 17 16 15 13 12 11 11 12 12 12 12 12 12 13 14 14 14 14 13 13 16 17 18 20 21 21 21 21 20 20 19 21 21
40 40 39 38 36 33 29 24 19 17 16 16 15 13 12 11 12 12 12 12 12 12 13 14 14 13 13 11 15 16 17 17 18 20 21 21 22 21 20 20 19 20 21
39 40 39 38 35 31 26 21 18 16 16 14 13 12 10 11 11 11 10 10 11 12 13 12 12 12 12 14 16 17 16 17 18 20 20 21 21 20 21 21 21 22 23
39 40 39 37 33 29 24 19 16 15 13 11 10 10 9 9 9 9 9 9 10 12 11 11 12 11 11 14 15 16 16 18 19 19 20 20 20 22 22 23 23 24 27
39 40 38 35 31 26 21 17 15 13 12 10 9 9 8 8 8 8 9 9 10 11 11 11 11 11 10 14 14 16 18 18 19 20 20 20 22 24 22 22 23 29 28
40 40 37 32 27 21 17 15 13 12 11 9 7 7 7 7 8 8 8 10 11 11 11 11 11 10 10 14 16 19 19 19 19 20 21 24 23 21 20 23 28 25 23
36 33 29 23 19 17 14 12 11 10 9 7 7 7 8 8 8 8 10 11 11 11 11 10 10 11 10 17 19 21 20 20 19 23 25 22 19 18 26 25 21 18 15
30 28 24 20 18 15 13 12 9 8 8 8 8 8 9 8 9 10 11 11 11 11 10 9 9 11 15 18 20 20 19 20 25 24 21 20 20 30 19 18 15 15 20
28 24 21 19 18 14 12 9 7 8 9 9 8 9 8 10 11 11 11 11 10 9 8 8 11 14 17 19 19 19 20 23 21 21 20 21 28 17 16 15 16 17 18
22 20 18 17 15 13 11 8 7 8 8 8 7 8 10 11 12 11 11 11 9 8 9 11 14 16 17 18 19 20 21 20 19 22 24 23 17 15 15 16 16 16 16
22 18 16 14 11 10 9 9 9 9 8 7 8 10 11 14 12 12 11 9 10 11 13 15 16 16 16 17 17 18 18 19 25 25 20 15 14 15 15 15 15 16 19
21 18 16 13 9 8 9 9 9 9 8 9 11 11 13 13 12 12 10 12 13 15 16 16 16 15 15 16 17 18 18 21 21 17 15 13 14 15 15 15 16 17 18
23 20 17 15 10 8 9 9 10 10 10 10 11 12 15 13 12 11 12 14 15 16 16 16 16 16 17 17 17 17 20 19 16 15 13 15 15 15 15 15 17 18 18

GFSMW_sfc_30mbdewp_030.txt.gz
Dewpoint
39 41 45 49 52 53 53 54 55 52 49 47 44 42 39 37 34 33 31 31 29 29 29 28 27 29 25 24 25 25 25 26 29 30 25 26 31 27 19 24 24 27 26
39 43 48 51 53 54 55 56 55 52 50 46 43 41 39 36 33 29 26 25 25 24 24 25 25 25 23 21 22 24 22 25 29 25 30 23 25 25 15 25 23 25 21
39 43 48 51 52 52 53 52 51 49 46 43 41 39 37 36 32 28 25 22 22 22 21 22 22 22 22 20 21 23 21 20 26 28 24 18 20 21 25 19 23 17 24
41 43 48 49 50 49 49 48 47 45 44 43 40 38 36 34 35 31 26 21 20 20 19 20 20 20 20 18 19 22 19 21 22 25 26 28 26 18 19 24 19 21 17
40 43 46 47 47 46 46 46 45 45 44 43 40 39 37 36 33 28 23 20 18 18 17 16 16 16 18 17 17 18 16 20 22 22 25 26 22 22 24 17 15 17 19
40 43 45 44 43 43 43 43 43 42 41 40 38 36 33 29 26 24 22 20 18 16 15 14 14 14 14 15 15 16 16 17 18 19 18 17 16 19 17 13 14 16 17
42 44 43 42 40 40 39 39 39 38 36 35 32 29 26 23 20 19 18 15 13 13 12 12 11 11 13 13 13 15 15 16 14 14 14 17 19 20 16 17 17 16 18
43 43 43 41 39 38 36 35 34 32 30 28 24 22 21 20 18 16 14 13 12 11 11 10 10 10 11 12 12 14 14 14 13 12 13 16 16 17 18 19 20 18 17
43 43 42 40 39 36 34 32 30 27 25 22 20 18 17 16 14 13 12 11 10 9 9 10 10 11 12 12 12 13 12 13 13 13 15 16 17 19 19 21 21 21 19
43 43 41 40 38 35 32 29 27 24 21 18 16 15 14 12 11 10 8 8 8 9 9 10 11 12 12 13 13 13 13 12 13 14 15 17 19 19 20 22 22 21 21
43 43 42 40 37 33 30 27 24 20 17 15 14 13 12 11 10 9 8 8 9 9 10 11 12 12 13 13 14 13 12 11 13 16 17 19 20 20 21 22 22 22 21
43 43 41 39 35 31 28 26 22 18 16 15 14 13 11 10 9 9 10 10 10 10 11 12 13 13 14 15 14 13 13 12 15 16 18 19 20 20 21 22 21 21 21
43 42 40 38 34 31 27 25 21 18 17 16 14 13 11 11 10 11 11 11 11 11 12 13 14 14 15 15 14 14 14 15 16 18 19 20 20 20 21 22 21 21 21
42 41 39 37 34 30 27 24 20 18 17 15 14 13 12 11 11 12 12 12 12 12 13 14 14 14 14 13 13 16 17 18 18 18 20 21 21 21 21 21 20 22 20
41 40 39 37 33 29 26 21 19 17 16 15 14 13 12 12 12 12 11 11 12 12 13 13 13 13 13 10 17 18 18 17 17 18 19 20 21 22 21 20 21 21 23
41 40 38 36 33 29 24 19 18 17 16 16 14 13 11 11 11 10 10 10 10 11 12 12 12 12 12 16 17 18 18 17 18 18 19 20 21 21 21 22 22 22 21
40 39 38 36 33 27 22 18 17 16 15 14 12 10 10 9 9 9 9 9 10 11 11 11 11 11 12 15 17 19 20 19 19 19 19 20 20 23 24 23 21 22 25
40 39 38 35 30 24 20 17 15 14 13 11 10 10 9 8 8 8 8 9 10 11 11 11 11 11 10 16 19 21 21 20 20 20 20 21 23 22 20 19 24 28 23
41 39 37 31 25 20 17 15 14 13 11 10 9 8 7 7 8 8 9 10 11 11 11 11 11 9 12 17 20 21 20 20 20 20 21 25 22 19 21 29 23 21 18
37 34 29 25 20 17 15 14 13 11 10 8 8 8 8 8 8 9 10 11 11 11 11 10 9 11 11 16 19 20 20 20 20 23 26 22 20 20 26 18 17 16 15
29 25 23 21 16 14 13 12 11 10 9 9 8 9 9 8 9 11 11 11 11 11 9 9 10 11 13 17 20 20 20 20 25 23 20 20 23 23 17 17 16 17 21
23 22 19 16 14 14 13 11 9 8 9 9 9 8 9 10 11 11 11 11 10 10 10 11 12 15 16 19 19 19 20 21 18 20 22 24 22 17 16 17 18 19 19
22 20 18 15 13 13 11 9 8 9 8 8 7 9 11 13 12 12 11 10 11 11 12 14 16 16 17 17 19 19 20 19 20 23 21 20 17 15 16 16 17 17 16
19 18 15 13 12 10 9 8 9 9 7 7 9 11 12 15 13 12 11 12 13 14 16 16 16 16 16 16 17 18 18 21 22 22 19 16 15 15 16 15 15 16 16
18 16 14 11 10 9 9 9 9 8 8 9 11 11 14 14 13 12 12 15 16 17 17 17 17 16 16 16 18 17 18 19 19 17 15 13 14 15 14 15 15 16 17
18 16 12 9 9 9 9 10 10 9 9 10 11 13 15 13 12 13 13 16 16 17 16 16 16 16 17 17 17 18 19 18 17 15 13 14 15 15 15 16 17 17 17

GFSMW_sfc_30mbdewp_033.txt.gz
Dewpoint
37 38 41 45 48 50 50 49 53 50 49 47 44 42 39 36 33 31 30 28 28 27 26 26 25 24 21 21 22 22 21 24 27 23 24 26 30 28 20 22 22 21 20
37 39 43 49 51 52 53 54 51 49 48 46 42 39 36 32 29 27 25 24 23 23 23 23 23 21 20 20 21 20 18 21 27 27 29 19 18 24 17 21 24 19 21
37 39 44 50 52 53 54 54 50 48 45 41 38 35 32 29 26 23 22 21 21 21 21 21 21 20 20 18 21 19 17 17 23 27 16 10 15 23 22 17 24 17 21
37 40 46 50 52 53 53 51 48 45 42 40 37 36 33 30 30 24 21 19 19 18 19 19 19 19 19 17 19 19 17 21 19 22 22 25 26 16 14 22 18 19 14
38 41 46 50 51 50 50 48 45 44 42 40 38 37 35 32 27 21 18 17 17 17 16 16 15 16 17 16 16 15 15 19 19 20 22 23 21 23 22 14 15 12 12
39 42 48 48 47 46 47 46 45 43 41 40 38 36 32 28 24 22 19 16 16 15 14 13 13 13 14 14 14 15 15 16 15 16 16 16 16 19 17 14 12 12 12
41 44 46 46 44 44 44 44 43 41 39 37 35 32 29 26 23 20 18 15 13 12 11 11 10 11 13 13 14 14 15 16 13 14 13 17 18 19 18 16 15 13 16
42 44 46 44 43 42 42 41 39 36 34 31 28 25 23 22 20 18 15 13 11 11 11 10 10 11 12 12 13 14 15 14 13 12 13 16 16 18 18 18 18 18 15
42 44 43 42 40 39 38 37 34 31 28 25 22 20 19 17 15 13 12 11 11 10 10 10 11 12 13 13 13 14 13 13 13 13 15 16 17 19 20 21 21 21 18
43 42 41 39 37 35 33 31 29 26 22 19 18 16 14 13 11 9 8 8 9 9 10 11 12 13 13 14 14 14 14 13 13 14 16 17 19 20 21 22 22 22 21
42 41 39 37 34 32 29 26 24 20 18 16 15 13 11 10 9 8 8 9 9 10 11 12 13 13 14 14 14 14 13 13 13 14 16 18 20 20 21 21 22 22 22
41 40 38 35 33 30 27 23 19 17 16 15 13 12 10 10 9 9 10 10 10 11 12 13 13 14 14 14 13 13 13 15 15 16 17 18 19 20 21 21 21 22 22
41 39 37 34 31 28 25 21 18 16 15 14 13 11 10 10 10 11 11 11 11 12 13 13 13 14 14 13 13 13 15 16 17 18 18 18 20 20 21 21 21 22 22
41 39 37 34 30 27 24 20 17 16 16 14 13 12 11 11 11 12 11 11 12 12 13 13 13 13 13 13 12 17 18 18 18 18 19 19 20 21 21 21 20 24 21
41 39 37 33 29 26 23 19 17 17 15 14 14 13 12 12 12 11 11 11 11 12 13 12 12 12 12 10 18 20 19 19 18 19 19 20 21 21 20 20 20 20 22
41 40 37 32 29 26 21 19 17 17 16 15 14 13 12 12 11 10 10 10 11 11 12 11 11 11 11 16 19 21 21 20 20 19 20 20 21 21 22 21 21 21 20
41 39 37 33 29 25 20 18 17 17 16 15 13 12 12 10 10 9 9 9 10 11 11 11 11 10 11 16 19 21 23 21 20 20 20 20 20 22 24 23 21 26 29
40 39 37 33 28 22 19 18 17 16 15 13 11 11 10 9 8 8 9 10 10 11 11 11 11 10 10 17 19 21 21 21 20 20 21 20 21 25 21 23 29 22 20
40 39 36 31 24 20 18 16 15 15 13 11 10 9 8 8 8 9 9 10 11 11 11 11 10 10 12 18 19 21 20 20 20 20 21 24 24 20 22 26 21 18 18
39 35 30 25 21 18 16 15 14 12 11 10 8 8 8 8 9 10 11 11 11 11 11 10 10 13 13 16 20 21 20 20 19 24 25 22 20 20 25 19 17 17 16
32 28 26 23 18 15 15 14 12 11 10 9 8 9 8 9 10 11 11 11 11 10 10 11 12 13 15 18 20 20 20 19 20 18 21 21 22 23 18 18 17 18 22
26 23 20 17 15 15 14 12 11 10 9 9 9 8 10 11 11 11 11 11 11 11 12 14 15 16 17 19 19 20 20 20 18 20 21 22 22 18 17 17 18 20 18
21 19 17 15 14 14 13 11 9 9 9 8 8 10 12 12 12 11 11 11 12 13 14 15 16 16 17 17 19 20 20 19 21 21 20 20 18 16 16 17 18 17 16
19 17 16 14 12 11 10 9 9 8 7 8 10 11 13 14 13 12 12 13 14 15 16 17 16 17 17 17 17 19 19 21 20 20 18 17 15 15 16 15 15 15 16
17 16 15 13 10 9 9 9 9 8 8 10 11 13 14 13 13 12 13 16 16 17 17 17 17 16 16 17 19 18 19 19 19 18 16 13 14 14 14 14 15 16 16
16 14 12 10 9 9 9 9 9 9 9 10 11 15 15 13 13 13 14 16 17 17 17 17 16 16 17 17 18 19 19 18 18 16 14 14 15 14 14 15 15 16 16

GFSMW_sfc_30mbdewp_036.txt.gz
Dewpoint
40 39 38 40 42 45 48 50 54 54 51 48 46 44 42 37 34 32 30 29 28 27 25 24 21 21 20 20 18 21 17 22 27 20 21 25 26 28 25 20 23 20 20
39 38 39 44 47 47 49 51 51 50 50 49 45 41 40 32 29 27 25 25 24 24 22 21 20 20 18 19 18 15 15 20 26 21 24 12 13 20 16 21 24 19 21
39 38 40 44 49 50 51 52 50 49 46 42 37 32 30 26 24 23 22 22 22 21 20 20 19 19 19 19 18 17 17 15 19 26 15 5 8 22 19 18 24 17 18
39 39 39 45 50 51 53 51 49 46 42 40 38 36 34 28 25 22 21 19 19 19 19 18 18 18 17 16 18 17 18 18 16 19 20 22 24 12 12 19 16 18 13
39 38 40 44 50 52 52 49 46 43 41 39 37 35 32 27 23 20 17 16 16 16 16 16 15 15 16 15 15 14 15 18 17 17 19 20 19 22 21 12 14 13 13
39 39 42 48 50 51 49 46 44 42 40 39 37 34 28 23 20 18 16 15 16 15 13 13 13 14 14 14 15 15 14 15 14 15 15 15 15 17 15 14 14 14 13
38 41 44 48 49 49 47 45 43 41 39 38 35 30 25 22 20 18 16 14 12 12 11 11 11 13 13 13 15 15 14 15 13 13 13 17 17 18 18 17 16 15 16
39 43 46 48 48 47 46 44 42 39 37 34 31 27 25 23 21 18 15 13 11 11 11 11 12 12 13 13 14 15 15 15 13 12 13 15 16 18 19 19 18 17 14
40 43 46 47 46 45 44 42 39 35 32 28 26 23 22 19 16 13 13 12 11 10 11 12 12 13 13 14 14 15 14 14 14 13 14 16 17 19 20 21 21 20 17
41 45 46 44 43 41 39 36 33 30 26 23 21 18 16 13 11 11 9 9 10 10 12 12 13 13 14 14 14 14 14 13 14 15 15 16 18 19 21 21 22 22 20
42 43 42 39 37 35 34 30 26 24 20 18 15 13 11 9 9 8 9 9 10 11 12 13 13 14 14 14 13 13 13 14 16 16 17 17 19 19 21 21 22 22 22
42 40 37 35 34 32 29 26 22 19 17 15 13 11 10 9 9 9 10 10 11 12 13 13 13 13 14 14 12 12 14 16 17 17 18 18 18 19 20 21 21 21 22
39 37 35 34 31 28 24 21 19 17 15 13 12 11 11 10 10 11 11 11 12 12 13 13 12 13 13 12 12 13 16 18 18 18 19 19 19 19 20 21 21 22 22
39 37 34 31 28 25 21 18 17 16 14 13 12 11 11 11 11 12 11 12 12 12 13 13 12 12 12 12 12 18 20 20 19 19 20 19 20 20 21 21 21 21 20
38 36 32 29 26 22 19 17 16 15 14 14 14 12 12 13 12 11 12 12 12 12 13 12 11 12 11 10 18 21 21 21 20 20 20 20 21 22 22 21 21 21 22
38 36 32 28 25 21 18 17 16 15 16 15 14 13 13 12 11 11 10 11 11 11 12 11 11 10 11 16 20 22 22 22 20 20 20 21 22 21 23 22 22 22 23
39 36 32 28 25 21 18 17 16 17 16 15 13 13 12 11 10 10 10 10 10 11 11 11 11 10 11 17 21 21 22 21 21 20 20 20 20 23 22 24 24 26 27
39 36 32 28 24 20 19 18 17 17 16 13 12 12 11 9 9 10 10 10 11 11 11 10 11 10 11 20 20 21 22 21 20 20 20 20 21 23 23 22 29 25 21
40 37 33 27 22 20 18 17 17 16 14 12 11 10 9 8 9 10 10 11 11 11 10 11 10 11 14 19 20 21 21 20 20 20 21 22 22 21 23 27 23 19 18
39 35 29 24 21 18 17 16 15 14 12 11 9 9 9 9 10 11 11 11 11 11 11 10 12 15 14 18 20 21 20 20 20 20 20 21 21 21 26 19 18 17 16
34 29 26 23 19 17 16 15 14 13 11 10 9 9 10 10 11 11 11 11 10 11 11 13 15 15 17 19 20 20 20 20 20 18 19 21 21 22 19 19 17 18 22
29 25 22 19 17 16 16 14 13 11 9 10 9 10 11 11 12 11 11 10 11 12 13 15 16 17 17 19 19 20 21 20 19 20 21 20 21 19 18 18 19 20 19
23 21 19 16 15 15 14 12 10 10 9 9 10 12 13 12 12 11 11 11 13 14 15 16 17 17 17 17 19 20 21 19 20 22 20 20 19 16 16 17 18 18 16
20 18 17 15 13 12 11 10 10 9 8 9 11 13 16 13 12 12 12 14 14 15 16 17 17 17 17 17 18 19 19 20 22 21 20 18 15 16 16 15 15 15 16
18 17 15 12 11 10 9 9 8 8 9 10 12 14 14 13 12 13 13 16 17 18 18 18 17 17 16 17 19 19 19 20 19 19 16 13 14 14 14 14 15 15 16
15 14 12 10 9 9 9 9 9 9 10 11 13 17 13 13 13 13 13 16 17 17 17 16 16 16 17 18 19 19 20 19 18 17 14 14 14 14 14 14 15 15 16

GFSMW_sfc_30mbdewp_039.txt.gz
Dewpoint
40 41 41 40 40 42 46 49 56 59 57 54 53 50 47 44 41 36 33 32 31 28 26 24 22 23 20 18 17 21 19 20 24 19 19 23 24 30 29 18 23 22 21
39 40 40 40 41 42 47 51 56 56 54 54 51 48 46 43 39 31 30 29 27 25 23 22 21 21 20 18 17 18 18 19 25 16 20 13 13 21 19 24 23 20 19
35 38 40 40 43 45 47 51 53 52 51 45 43 40 39 35 30 26 27 26 23 22 22 21 20 21 21 19 19 20 20 16 22 20 14 9 8 17 17 17 21 16 15
32 36 39 40 44 47 50 51 51 49 45 43 43 43 43 37 30 26 24 22 21 21 20 20 19 19 20 18 17 18 18 19 15 18 18 20 18 10 8 16 16 16 12
31 36 39 40 44 50 52 51 48 46 43 43 44 44 40 32 24 20 19 18 19 18 18 18 19 18 18 17 17 17 17 17 17 16 17 17 16 20 18 8 10 12 13
34 37 39 42 47 51 52 49 46 43 42 41 39 37 31 24 19 18 17 16 16 16 16 16 17 17 17 17 17 17 17 16 17 17 16 14 13 12 13 12 12 14 12
37 39 41 44 48 51 50 47 45 42 40 38 36 31 25 21 19 17 16 15 13 14 14 15 14 15 17 17 18 19 19 19 16 15 14 16 17 17 17 16 14 14 15
35 39 42 46 48 50 48 46 43 40 39 36 30 26 25 23 21 18 16 14 13 13 14 14 14 15 16 16 17 18 18 18 17 15 15 16 17 18 18 17 17 16 12
32 37 44 47 49 49 47 45 42 39 36 32 27 25 23 21 18 16 14 13 13 12 13 15 14 15 15 15 17 16 15 15 15 16 16 16 17 19 19 20 19 18 15
31 40 45 47 48 48 45 42 38 35 31 28 24 22 18 16 15 13 12 12 12 13 14 14 15 15 15 15 14 14 15 14 16 17 17 17 19 19 20 20 20 20 19
34 42 46 46 45 42 40 36 32 29 25 22 19 16 13 12 11 11 11 11 12 13 13 14 14 14 14 14 12 12 14 16 17 18 18 19 19 19 19 20 20 20 19
42 44 41 39 39 36 34 32 27 24 20 17 15 12 11 10 10 10 11 12 12 13 14 14 13 13 13 13 11 12 15 17 18 19 19 19 19 19 19 19 19 20 20
39 37 37 37 35 33 29 25 21 18 15 14 12 11 11 11 10 11 12 12 13 14 14 13 12 12 13 12 11 14 18 20 20 20 20 20 19 18 18 20 21 21 21
37 36 35 33 30 27 24 20 17 15 14 13 13 12 12 11 11 12 12 13 13 13 13 13 12 12 11 11 13 18 21 22 21 21 21 20 19 19 21 22 22 23 22
36 34 31 29 25 22 20 18 16 14 14 14 14 13 13 13 13 13 13 13 13 13 13 12 12 12 12 9 19 22 22 22 22 21 20 20 21 23 23 22 22 21 22
36 32 30 26 23 21 18 17 15 15 16 15 14 15 13 13 13 12 13 13 13 12 12 11 11 11 10 17 21 22 22 22 22 20 19 20 22 22 22 22 22 23 23
35 31 28 25 22 19 17 16 16 16 16 15 14 13 13 12 12 12 12 12 12 12 11 11 11 10 11 19 21 22 22 21 21 20 20 20 20 22 22 23 24 24 30
35 31 28 23 20 18 17 17 17 16 15 14 13 13 12 11 11 11 11 11 11 11 10 10 11 11 12 21 21 22 21 21 20 20 20 20 21 22 22 22 28 27 21
35 31 28 23 20 18 17 17 17 16 14 13 12 11 10 10 11 11 11 11 11 10 10 11 11 13 16 20 21 22 21 20 20 20 21 21 19 20 21 25 26 19 18
34 30 25 22 19 18 17 17 16 14 13 12 10 10 10 11 11 11 11 11 11 10 11 11 14 16 15 19 21 21 20 20 19 20 19 19 21 20 24 22 20 18 16
32 27 24 21 19 18 17 16 15 13 12 10 10 10 11 11 11 11 11 10 11 11 11 13 15 16 17 18 20 21 20 20 20 18 18 21 20 24 20 19 18 17 22
28 25 21 19 18 17 17 15 13 11 10 10 11 12 12 11 11 11 11 11 12 12 13 16 16 17 17 19 19 20 21 21 19 19 21 20 22 19 18 18 19 21 20
24 21 19 17 17 16 15 13 10 10 10 11 12 12 12 12 11 11 11 12 13 13 15 16 16 16 17 17 19 21 21 20 21 22 20 21 19 17 16 17 19 18 15
20 18 17 15 14 14 12 10 10 10 10 11 13 14 13 12 12 13 12 14 14 15 17 17 16 17 16 16 17 19 20 20 23 20 20 18 16 16 16 15 14 15 15
19 17 15 13 11 11 10 9 9 10 10 12 13 14 13 12 12 13 13 16 17 18 17 17 17 16 15 16 19 19 19 22 20 19 17 12 13 13 13 14 14 15 15
15 14 12 11 10 9 8 9 10 11 11 13 15 14 13 13 13 13 13 17 17 17 17 16 16 16 17 18 19 20 21 19 19 16 13 13 13 13 13 14 15 15 16

GFSMW_sfc_30mbdewp_042.txt.gz
Dewpoint
35 38 40 41 43 42 42 44 46 51 56 58 59 61 59 57 56 54 49 46 41 35 30 30 27 26 24 20 19 20 21 20 21 18 16 21 21 29 28 24 20 22 19
26 31 36 39 41 42 43 45 48 53 57 58 57 57 55 52 48 44 41 40 33 30 27 26 25 23 21 20 19 19 19 19 22 16 19 15 15 20 25 17 20 16 18
24 25 26 34 40 42 43 45 49 55 57 56 57 52 48 43 38 37 36 32 28 25 26 25 24 22 21 21 20 21 20 18 20 18 15 12 11 13 13 17 14 16 13
26 27 26 27 36 41 45 46 50 54 56 54 51 49 51 47 39 36 33 30 27 25 23 22 22 21 20 20 18 18 17 18 16 17 15 18 14 8 8 11 13 14 12
24 26 28 29 32 41 46 48 51 53 52 51 52 52 50 46 37 31 26 25 23 22 21 20 20 19 18 18 18 18 17 15 16 15 14 14 14 15 14 11 10 12 13
25 27 28 32 33 40 49 51 51 51 50 51 51 53 48 39 31 25 24 24 23 20 19 18 19 18 18 18 18 18 18 16 17 15 14 13 12 11 12 11 12 13 12
25 29 32 35 37 41 50 51 50 49 49 50 51 48 42 38 33 23 23 20 18 18 18 17 16 17 19 19 19 20 21 20 17 15 13 14 14 14 15 14 13 12 13
28 26 33 38 40 44 50 50 49 47 47 47 46 43 37 28 22 20 18 18 18 18 17 15 15 16 16 17 18 19 18 19 17 16 15 14 14 16 16 16 15 14 11
30 30 30 38 41 46 49 49 48 46 45 44 41 34 27 23 20 18 18 17 16 15 15 15 15 16 16 15 18 15 13 14 14 14 16 17 17 18 18 18 17 16 14
35 31 29 38 44 47 49 49 47 44 42 38 35 29 23 20 18 17 17 16 14 14 15 15 15 15 15 14 13 12 13 12 14 15 17 17 17 17 18 18 18 17 16
38 33 32 41 46 49 49 47 44 41 37 34 28 23 19 17 17 17 16 15 13 13 13 13 13 13 13 11 10 10 12 13 16 17 18 18 18 18 16 16 16 16 16
41 40 40 45 47 47 46 43 39 37 33 27 23 18 17 16 16 15 14 13 12 12 12 12 12 12 11 10 8 9 13 15 17 18 18 18 17 16 15 15 15 16 18
40 41 42 43 44 43 41 38 33 28 25 21 17 16 16 15 14 13 12 12 12 13 13 13 11 10 11 9 8 12 15 17 18 19 19 19 17 15 16 17 18 19 19
39 40 41 41 41 39 34 29 23 19 17 17 16 16 16 15 13 12 12 12 13 13 13 12 11 11 9 10 12 16 18 19 19 20 20 19 17 17 18 19 19 18 19
39 39 39 39 35 28 24 20 18 17 16 16 17 17 15 14 13 13 12 13 13 13 13 12 11 10 11 7 17 19 20 19 19 18 18 17 18 21 23 22 20 20 21
38 36 35 32 27 23 20 18 17 16 17 18 17 16 14 13 13 13 13 14 14 13 13 11 11 10 9 16 22 23 20 19 18 17 16 16 18 18 21 22 22 23 25
37 35 31 27 24 22 20 18 17 17 17 17 16 14 14 13 13 13 13 13 13 13 11 11 10 9 10 18 23 22 20 19 17 17 17 17 17 19 19 19 22 24 25
35 32 28 26 23 22 21 19 18 18 18 16 14 13 12 12 12 13 13 13 12 11 10 10 10 10 11 20 21 22 20 18 18 18 18 18 19 18 19 20 24 27 23
34 30 27 25 22 20 19 18 18 18 17 15 13 11 11 11 11 12 12 12 11 11 10 10 10 11 12 17 21 22 18 17 17 18 18 19 18 19 21 23 28 19 16
33 29 26 24 21 19 19 18 18 17 15 13 11 10 10 11 12 12 12 12 11 11 10 9 11 13 12 15 20 21 18 17 17 17 18 17 19 20 23 25 18 18 14
30 26 24 22 20 19 19 17 17 15 13 10 10 11 12 12 12 12 12 11 11 11 9 9 11 12 13 15 19 20 20 18 18 17 16 17 19 21 21 20 18 16 20
26 23 20 19 18 18 18 16 13 12 11 11 12 12 12 11 12 12 11 11 11 10 8 10 10 10 12 14 16 20 22 21 19 17 18 19 21 21 20 18 18 20 21
26 25 22 19 18 18 15 12 11 11 12 12 12 12 12 12 12 12 12 11 11 9 9 10 10 10 11 12 15 19 19 19 19 22 21 21 19 18 15 15 19 18 15
23 21 20 18 16 15 13 11 11 11 12 11 12 12 12 12 12 13 12 11 10 10 12 11 11 11 11 11 14 17 18 18 21 21 21 17 16 14 14 14 14 15 15
22 20 18 16 13 12 11 11 11 11 11 13 14 14 13 12 11 12 11 12 13 17 14 12 12 12 12 13 19 20 19 21 20 20 15 12 11 12 12 13 14 15 16
19 17 15 13 12 10 10 11 11 12 11 12 12 12 12 12 11 10 9 16 17 17 16 16 16 15 16 18 20 20 21 20 19 16 12 11 13 13 14 15 16 17 18

GFSMW_sfc_30mbdewp_045.txt.gz
Dewpoint
32 34 36 38 38 38 40 41 42 44 47 52 56 58 59 62 63 63 61 59 55 47 43 38 35 32 30 27 25 24 24 24 23 21 21 24 24 29 28 29 22 22 22
27 28 31 36 38 39 42 42 42 44 49 53 56 57 60 58 57 56 56 52 47 42 37 34 32 28 25 23 23 24 23 23 22 19 23 20 21 22 27 24 21 19 18
24 23 23 29 37 39 40 42 42 46 51 54 57 58 54 50 46 47 45 42 41 37 34 32 29 27 27 26 25 25 24 22 21 20 20 17 17 16 15 19 18 18 17
23 24 24 23 28 37 42 43 44 47 52 56 56 56 53 49 44 44 42 39 35 34 31 29 27 26 25 24 22 21 19 20 19 20 17 21 18 12 12 14 15 15 14
21 22 24 27 27 30 41 45 46 48 54 55 56 54 51 51 43 40 37 35 33 28 26 26 26 25 24 21 22 20 18 17 18 18 18 16 16 16 15 16 14 15 16
20 21 24 27 29 33 39 47 47 51 54 56 53 52 53 44 38 35 35 34 31 27 25 24 24 22 23 22 21 21 20 19 20 18 16 16 15 14 15 14 15 15 15
20 22 24 27 29 32 35 47 49 50 53 52 52 52 52 42 38 36 35 30 27 24 23 22 21 22 22 21 21 24 25 23 21 19 16 15 15 16 15 16 16 16 16
23 28 29 28 31 36 37 46 49 50 50 51 52 54 46 42 39 34 28 25 25 23 21 20 20 19 19 19 22 23 21 22 20 19 18 17 16 17 17 17 18 17 16
27 31 33 32 32 37 39 46 49 49 49 51 52 47 44 38 32 26 24 22 22 20 20 19 17 17 17 17 20 18 15 15 16 16 17 18 18 19 19 19 19 19 17
30 33 32 32 30 38 41 48 48 48 49 50 47 42 33 26 22 22 21 21 21 19 19 18 17 16 16 15 14 14 14 13 14 16 16 18 18 18 19 20 19 19 18
31 36 33 31 33 40 44 47 48 47 47 45 38 32 26 21 20 19 18 18 18 18 17 16 15 14 14 12 11 11 11 13 15 17 17 18 18 18 18 18 17 17 17
34 38 37 37 40 44 48 48 46 45 42 37 32 26 21 20 19 19 18 18 17 15 14 13 12 12 11 10 9 9 11 14 15 17 18 18 17 18 17 16 16 17 18
33 39 40 42 44 48 47 45 42 39 35 31 25 20 20 20 20 19 19 17 15 13 13 13 12 11 11 10 9 11 13 15 17 18 18 19 18 17 17 17 18 19 20
38 39 40 41 43 45 43 41 37 33 29 25 21 19 19 17 16 16 16 15 14 14 13 13 12 11 10 10 11 15 17 19 19 19 19 19 19 17 17 19 21 20 20
40 40 40 41 42 41 37 32 30 26 23 22 20 19 18 17 16 16 15 14 14 14 13 12 11 11 12 8 16 18 19 19 18 19 18 17 18 19 21 21 22 22 22
41 39 39 39 34 30 27 24 21 20 20 21 20 19 18 17 16 15 15 15 15 14 14 12 11 11 10 18 22 24 21 19 17 17 16 17 17 17 19 21 21 21 21
39 37 36 31 26 22 20 19 19 20 21 21 19 18 17 17 16 15 15 15 14 14 13 12 11 10 11 18 22 23 21 19 18 17 17 17 17 19 19 19 19 22 23
36 34 30 26 22 21 20 21 22 20 21 20 19 17 16 15 15 15 15 15 14 13 12 11 11 11 11 18 21 22 20 17 17 17 17 18 18 19 19 20 24 25 27
32 29 25 23 24 24 24 24 24 21 19 18 17 15 14 14 14 14 13 13 12 12 11 12 11 11 10 16 20 22 19 16 16 17 17 18 19 18 20 22 25 25 20
29 28 28 30 33 32 32 31 28 26 25 19 14 13 13 13 14 14 13 13 13 12 12 10 11 11 12 12 17 21 19 17 17 18 18 17 17 19 21 22 22 20 18
31 30 29 31 29 29 25 22 20 17 14 12 12 13 13 13 14 13 13 13 13 12 11 9 9 10 11 13 16 19 20 19 20 20 18 18 19 21 22 21 20 19 19
28 26 24 22 21 21 20 18 14 12 12 13 13 13 13 13 13 13 12 12 12 11 9 8 10 10 10 12 13 17 20 21 20 18 19 21 22 21 20 19 18 19 21
27 24 21 21 22 20 18 14 12 13 13 13 13 13 13 13 13 13 13 12 11 9 8 10 10 10 11 11 12 15 18 19 19 20 21 21 20 19 16 15 17 17 16
31 28 25 20 16 14 12 12 12 13 12 12 13 13 12 12 13 13 12 11 9 9 10 9 10 10 10 11 13 18 19 19 20 22 22 19 17 13 14 14 14 15 16
23 22 19 15 13 12 11 12 12 12 12 13 13 14 14 12 12 12 11 10 12 15 14 12 12 12 12 14 20 20 20 21 21 20 19 15 11 13 13 14 15 16 17
21 17 14 12 12 11 11 12 14 14 14 13 13 13 13 12 11 10 8 16 15 16 18 17 16 16 17 19 20 20 20 20 20 18 14 12 14 14 14 15 17 18 19

GFSMW_sfc_30mbdewp_048.txt.gz
Dewpoint
33 33 33 35 34 35 39 43 44 44 45 47 58 62 61 62 63 63 61 61 59 51 44 41 37 35 33 30 27 27 27 24 23 24 23 26 27 31 27 28 27 24 23
28 29 31 35 36 38 38 38 43 45 46 47 54 59 60 59 59 61 61 58 51 46 41 37 33 30 26 24 25 27 24 25 23 18 23 21 23 25 26 30 23 21 19
25 26 26 29 34 36 39 40 43 43 47 50 56 55 54 52 52 50 47 46 43 41 41 38 32 28 28 27 27 26 26 24 22 20 20 17 19 16 21 22 23 17 20
26 26 26 26 27 35 38 40 43 43 47 52 56 56 56 55 50 47 46 43 41 40 39 37 32 30 28 26 24 24 22 24 21 21 21 21 19 13 10 17 18 17 16
24 24 25 26 27 29 38 39 42 43 47 53 56 56 53 48 47 44 42 40 40 39 36 31 29 27 25 22 22 21 19 20 21 20 19 17 19 17 15 15 17 17 17
21 22 24 27 29 31 31 38 44 45 49 55 57 54 50 46 43 39 39 38 36 31 28 27 26 25 25 23 23 22 21 21 20 19 18 17 16 16 16 16 16 16 17
18 21 26 29 28 28 33 33 43 46 52 56 56 53 47 44 41 39 38 34 31 29 29 27 25 25 25 23 25 26 25 24 23 19 18 17 17 18 17 17 17 18 18
21 22 31 33 33 34 33 35 44 48 54 55 53 52 43 41 39 39 36 33 30 29 28 26 25 23 23 24 26 26 25 24 25 19 19 19 18 19 19 18 19 18 18
22 29 33 33 33 35 35 36 46 50 54 53 53 46 42 39 38 35 33 31 28 25 24 22 20 20 20 21 24 22 18 17 17 17 18 19 20 20 20 21 20 19 17
26 30 35 36 34 34 38 38 49 50 51 52 47 43 41 38 33 29 29 27 22 22 21 21 19 18 17 17 18 16 14 14 15 17 16 18 20 20 20 20 21 20 19
27 32 37 38 37 35 40 42 49 49 51 49 40 31 28 27 26 25 23 22 21 21 20 20 17 16 15 14 13 12 13 13 15 17 18 19 19 19 20 20 19 18 18
27 36 38 39 39 39 43 47 49 49 42 34 29 24 23 21 20 19 19 20 19 18 17 16 15 14 12 10 9 10 12 14 15 17 18 19 19 19 19 19 18 18 19
27 38 39 39 43 47 48 48 47 37 32 28 24 21 22 21 20 20 20 20 19 17 15 14 13 12 12 11 9 12 14 15 17 18 19 19 20 19 19 18 19 21 21
32 39 40 40 47 47 45 41 35 31 27 23 22 21 21 20 19 19 18 17 16 15 14 13 13 12 11 11 12 17 18 19 20 20 20 20 19 19 18 20 20 21 22
39 40 40 41 45 44 39 34 30 26 22 22 22 21 19 18 18 17 16 17 16 15 14 13 12 12 13 15 18 22 22 21 20 19 19 18 20 20 20 20 21 22 22
40 40 40 41 37 32 31 29 26 23 22 22 22 19 17 17 17 17 17 16 15 15 14 13 12 14 10 19 22 24 24 22 20 19 18 18 20 18 20 21 21 21 21
40 40 39 31 27 26 24 24 22 24 24 22 20 19 18 18 18 17 16 15 15 14 13 12 12 11 16 19 21 23 23 22 20 19 18 18 17 19 19 21 20 21 23
40 38 30 25 23 22 21 22 22 23 23 22 20 19 18 17 17 17 16 15 15 13 12 12 12 12 16 19 20 22 22 20 19 18 17 18 18 19 20 20 22 24 25
31 28 24 22 21 22 23 25 24 25 23 24 22 18 18 17 16 15 14 13 12 12 12 12 11 11 13 19 18 21 21 19 18 18 19 20 19 20 20 22 23 24 24
25 25 26 26 28 27 26 26 25 24 24 22 21 21 22 18 16 14 14 15 14 13 12 10 11 14 11 14 17 19 20 20 20 20 21 21 19 21 21 22 23 21 20
33 32 33 34 35 35 35 33 33 32 32 32 30 25 17 15 14 15 14 14 13 13 11 10 10 10 12 13 15 17 19 20 21 21 20 19 20 22 23 22 20 19 20
35 35 35 35 37 38 35 32 30 28 22 17 14 15 15 17 14 13 12 12 12 11 9 10 11 11 11 14 14 15 17 20 20 19 19 21 23 22 21 20 18 19 20
25 26 25 22 21 18 14 13 14 14 14 14 14 15 14 14 14 13 13 12 11 9 10 11 11 11 12 12 16 19 20 21 21 20 21 22 21 20 17 16 17 17 16
30 29 26 23 22 21 18 16 14 14 14 13 13 13 13 13 13 13 13 11 11 11 11 11 12 12 13 14 16 20 21 21 21 22 22 21 18 15 15 15 15 16 17
30 22 19 15 13 13 13 13 13 14 13 14 14 15 14 13 12 11 11 11 17 15 14 16 16 15 16 16 20 21 21 21 21 20 19 16 14 15 15 15 16 17 17
17 15 13 12 12 12 13 15 16 15 15 14 14 14 13 12 11 9 11 16 15 14 16 17 16 16 17 19 20 20 21 20 19 17 14 14 15 16 15 16 16 17 18

GFSMW_sfc_30mbdewp_051.txt.gz
Dewpoint
33 34 33 33 33 35 37 41 44 52 57 63 64 63 63 64 63 62 61 60 56 53 49 46 40 35 32 30 28 27 25 21 23 23 22 27 28 28 27 28 26 25 24
29 30 31 32 34 34 35 38 44 45 51 59 63 63 63 62 62 63 61 60 54 49 46 42 37 34 31 27 26 25 25 24 22 17 25 20 22 25 28 30 27 22 21
26 28 28 29 30 34 36 38 40 44 44 48 58 57 56 55 58 57 55 53 50 46 43 39 35 29 28 26 26 26 26 23 22 21 20 17 16 17 21 25 24 18 20
26 26 26 26 27 28 34 37 40 43 45 50 56 58 59 59 57 53 48 46 45 45 42 39 33 32 30 27 26 26 25 25 20 21 21 21 18 8 5 16 20 18 17
27 26 27 27 27 28 29 35 39 41 45 49 55 57 58 54 50 47 45 45 43 42 41 37 34 33 32 27 23 21 22 23 22 22 20 18 19 18 15 12 16 18 17
22 25 25 27 29 30 30 34 38 41 44 49 56 57 54 51 48 44 44 43 43 41 35 33 34 32 30 28 24 21 20 20 20 19 18 17 15 17 17 16 17 16 17
18 20 29 32 32 32 33 33 35 38 44 50 56 54 52 51 48 44 43 42 36 34 31 30 32 31 30 27 26 24 24 23 20 18 18 18 17 19 18 17 16 17 19
21 21 32 33 33 33 34 34 34 37 46 55 55 51 49 48 46 44 41 41 34 32 31 31 31 29 28 28 27 26 25 24 23 19 19 19 19 20 19 18 18 17 18
22 26 33 35 34 34 35 35 35 40 52 54 50 46 46 45 44 41 38 37 34 30 29 29 29 29 28 27 25 24 20 20 20 18 19 19 21 21 21 21 21 19 17
25 30 36 36 35 35 38 37 37 43 54 53 46 43 44 43 41 37 33 31 27 26 27 26 25 24 24 23 22 18 16 15 17 18 17 18 20 20 20 20 21 21 20
26 27 36 37 37 37 39 40 42 50 52 46 42 42 40 38 36 34 29 26 25 25 24 23 22 20 18 17 15 16 14 13 15 17 18 19 20 20 20 20 20 19 19
29 28 37 37 37 39 41 42 49 50 41 37 38 35 34 31 32 29 25 23 22 22 21 21 20 16 14 13 15 15 12 14 15 17 18 19 20 19 20 20 19 18 19
33 37 39 38 41 46 48 48 40 34 32 31 29 28 25 26 25 25 23 22 20 21 19 16 14 13 12 10 11 13 14 16 17 19 19 19 20 19 20 20 19 20 20
40 39 40 40 46 45 42 36 32 29 26 26 25 24 23 22 22 22 21 22 21 19 16 15 14 13 12 13 17 19 20 21 20 20 20 20 19 19 19 19 20 20 21
40 42 40 41 44 38 36 32 29 27 27 26 27 25 25 23 21 21 20 19 19 17 17 18 19 19 15 16 18 23 23 21 20 20 19 19 20 21 20 20 21 22 22
41 41 40 41 36 33 29 28 31 29 27 24 24 23 21 21 20 19 18 17 16 16 16 16 17 12 17 22 25 24 23 22 20 20 20 19 21 19 20 20 20 22 21
42 40 31 28 25 26 26 27 28 27 25 23 20 19 19 21 23 22 20 16 15 14 14 14 13 13 20 22 22 23 23 21 20 19 18 18 18 21 20 21 22 22 23
36 28 25 25 23 24 25 26 26 24 22 21 22 25 26 27 25 19 18 19 20 20 16 12 13 14 20 21 21 23 21 20 19 19 19 20 20 21 21 21 22 24 24
24 24 23 23 24 25 25 26 27 25 24 23 24 28 26 22 20 19 17 14 13 14 13 13 12 12 19 19 19 21 21 20 20 20 21 22 22 22 22 22 22 23 24
25 25 25 26 26 26 27 29 28 30 31 30 29 25 24 24 24 25 25 23 17 14 12 11 11 15 11 16 17 18 20 19 19 20 22 23 21 21 22 23 23 20 19
32 32 33 32 32 32 31 31 31 31 32 32 32 32 32 31 28 24 19 15 13 12 10 10 11 10 13 13 16 16 18 18 20 21 20 20 22 23 23 22 21 19 20
34 34 33 33 35 35 34 32 32 32 33 32 32 30 25 20 17 15 13 13 12 10 10 11 11 13 12 17 17 19 21 22 21 21 20 21 24 22 21 19 18 19 20
34 34 33 34 35 34 34 32 31 32 28 22 19 18 18 15 14 13 12 11 10 10 11 11 12 12 13 14 19 21 22 22 21 22 22 23 21 18 17 17 18 18 16
26 26 25 23 18 17 17 17 15 16 17 20 20 15 13 13 13 14 12 12 11 11 11 12 13 13 15 16 18 21 21 22 22 23 22 19 16 16 17 16 16 16 17
27 26 25 22 19 19 19 19 18 16 14 14 15 15 14 12 11 11 11 15 16 12 11 15 15 15 15 17 21 20 20 21 21 19 16 14 15 16 16 15 16 16 17
20 18 16 14 14 14 14 15 15 15 14 14 14 13 13 12 10 10 11 18 17 16 17 16 15 15 16 18 19 20 20 20 18 15 14 15 15 16 15 16 16 17 18

GFSMW_sfc_30mbdewp_054.txt.gz
Dewpoint
32 34 34 33 34 34 34 38 44 59 62 63 63 64 63 63 63 62 59 58 58 56 54 50 44 39 36 33 28 26 23 20 23 22 24 28 29 27 27 28 26 26 24
28 30 32 33 33 33 33 35 40 48 60 63 63 63 63 64 63 62 61 59 57 54 52 47 41 36 34 30 27 26 25 22 22 18 24 21 22 25 27 30 28 25 23
26 27 29 29 30 31 34 35 36 43 55 61 62 60 59 58 60 61 61 60 56 53 51 45 40 35 32 30 27 27 25 22 21 22 22 19 16 20 19 25 23 20 20
26 26 27 27 28 29 31 34 37 40 46 57 61 60 59 59 60 60 57 55 52 52 49 44 41 37 34 29 28 28 29 25 20 21 21 21 19 6 5 16 20 19 17
27 27 27 27 27 27 28 30 33 38 44 51 60 60 59 59 55 54 54 51 49 50 46 43 39 37 35 31 29 29 28 25 23 22 20 18 19 18 12 7 14 19 18
25 26 27 28 28 30 30 30 33 38 41 47 55 59 59 55 53 51 50 47 47 48 45 39 39 38 34 33 30 26 24 22 22 21 19 17 15 17 16 16 16 16 17
21 25 29 31 32 32 33 33 32 31 37 43 51 56 57 55 53 51 49 47 44 42 41 40 38 36 33 29 27 26 25 22 19 18 19 19 18 19 18 17 16 16 19
24 23 31 32 32 32 32 34 34 34 34 40 50 56 55 54 52 50 48 47 44 40 38 37 36 33 30 30 30 28 26 24 21 18 19 19 19 20 19 18 17 16 18
28 27 30 34 34 33 33 34 35 36 36 40 53 53 52 51 49 46 46 42 40 38 37 35 32 30 30 29 29 27 24 22 20 20 19 19 21 22 21 21 21 18 15
33 30 30 35 35 35 34 37 39 39 38 49 50 49 49 48 46 44 43 40 37 35 35 32 29 29 28 27 25 20 19 18 18 19 17 18 20 20 21 21 21 22 19
35 34 35 32 36 36 35 35 40 43 49 49 46 46 46 45 44 43 40 36 33 32 29 26 26 26 24 22 20 19 16 15 16 18 18 18 20 20 20 21 20 20 20
36 36 33 35 38 38 41 43 46 49 47 44 43 43 42 42 40 39 35 32 30 28 26 24 23 23 22 16 16 16 19 22 20 17 18 18 19 20 20 20 20 19 19
37 38 38 39 40 46 46 46 45 43 41 41 41 40 39 38 37 32 30 29 26 23 21 20 18 16 15 15 14 14 15 17 20 21 20 20 20 20 20 20 19 19 20
38 40 40 41 44 42 39 35 33 34 34 37 35 35 35 33 29 27 24 23 23 23 22 20 17 15 15 20 23 24 26 26 23 21 20 20 20 19 18 19 19 20 20
41 41 42 43 43 35 31 30 31 32 33 31 30 28 28 27 25 24 22 22 21 20 19 21 24 27 28 28 27 27 25 22 20 20 20 20 22 24 22 21 21 21 21
39 42 41 40 33 28 31 33 33 33 34 31 29 27 26 26 26 24 24 23 24 26 27 28 29 26 26 29 28 25 22 21 20 19 19 19 19 20 23 23 22 22 22
39 36 27 25 26 28 30 31 31 33 31 28 28 27 24 24 24 25 25 26 26 26 26 23 20 23 27 26 24 26 21 20 19 18 18 19 20 22 21 23 23 23 24
26 26 24 25 27 29 32 33 32 32 30 30 29 28 29 30 30 29 28 28 27 26 26 25 25 25 25 23 23 24 20 19 19 20 20 20 22 22 23 23 23 23 24
26 25 25 25 26 27 27 28 29 30 31 30 31 31 31 30 29 28 26 23 20 21 21 17 14 20 22 20 21 22 20 19 18 20 21 23 23 23 23 23 23 24 24
26 26 27 27 28 28 28 28 29 29 30 31 32 32 32 30 29 28 29 31 31 29 23 19 14 15 11 20 17 19 20 18 18 20 21 23 22 22 24 24 22 21 19
32 32 31 30 30 30 31 32 32 31 32 32 32 32 32 32 32 32 31 30 26 17 11 11 11 13 15 15 18 19 19 20 21 21 21 21 23 24 23 21 20 19 20
34 34 33 33 35 34 33 31 30 31 32 33 33 33 33 33 32 30 27 21 13 10 11 12 13 13 13 20 20 21 22 23 22 21 21 22 24 22 20 19 19 20 20
33 34 34 33 32 35 33 31 31 32 32 32 31 30 26 19 15 12 12 10 11 11 11 12 11 11 14 16 21 23 22 22 22 23 23 23 21 18 17 18 19 19 16
34 35 33 31 30 31 32 32 32 29 24 22 19 16 14 13 13 13 12 11 10 9 10 11 11 13 15 17 20 21 21 22 22 23 18 17 16 17 17 17 16 17 17
25 24 21 20 19 20 21 20 19 23 24 17 15 16 15 12 11 13 14 13 13 10 10 13 14 14 15 17 20 21 20 21 20 18 14 14 15 16 15 16 16 16 17
26 23 19 18 18 19 18 17 17 18 16 14 14 13 12 11 12 13 14 19 17 17 17 19 17 15 17 19 20 20 20 20 18 15 14 15 15 16 16 16 16 17 18

GFSMW_sfc_30mbdewp_057.txt.gz
Dewpoint
32 32 33 35 35 35 35 38 48 60 63 64 64 64 63 64 64 63 61 58 57 56 55 54 51 47 43 38 33 28 26 22 23 23 25 28 29 27 28 28 27 28 25
28 29 30 32 33 34 34 35 41 56 61 63 64 63 64 64 64 63 61 58 58 57 55 53 49 45 40 34 29 29 24 22 23 20 23 21 24 26 27 30 27 26 24
27 27 28 29 31 32 33 34 35 43 58 62 63 62 61 60 61 62 62 59 58 57 55 52 48 43 40 35 32 29 27 22 20 23 23 21 19 22 19 25 24 22 20
27 28 27 27 28 29 30 32 34 37 50 60 62 61 60 59 61 62 62 60 57 56 55 52 47 43 43 39 36 32 29 25 20 21 21 20 21 12 8 18 20 19 18
25 27 27 27 28 28 28 29 31 35 41 51 60 61 59 59 59 59 60 56 54 56 53 50 44 42 42 41 37 36 32 28 25 23 19 19 19 17 10 6 15 19 19
23 24 29 28 28 29 29 29 30 32 36 45 57 61 60 58 56 56 56 54 52 52 51 48 47 45 43 39 39 37 33 27 26 23 21 17 15 15 15 12 15 16 16
30 29 24 31 32 32 32 32 32 31 35 41 48 56 59 57 56 56 56 52 51 49 48 46 45 44 42 39 35 31 27 26 24 20 19 19 18 20 19 16 15 14 18
32 31 29 31 33 33 33 34 33 33 34 35 41 50 56 57 55 54 54 52 51 48 45 45 43 42 37 34 32 30 27 25 22 19 19 19 19 19 18 17 15 14 18
35 34 32 33 34 34 34 33 34 34 34 35 39 47 54 55 54 52 51 49 46 44 44 42 40 36 34 31 29 28 25 22 21 20 20 20 21 22 21 21 20 17 13
37 37 35 34 35 35 35 35 35 36 38 39 43 48 52 53 51 49 47 44 43 42 41 38 35 32 31 29 27 24 23 20 21 20 19 19 21 21 22 22 21 21 19
38 38 37 37 36 36 37 37 37 39 41 46 47 48 49 48 47 46 44 42 40 39 37 34 32 29 27 24 21 20 19 19 21 20 20 21 21 21 21 22 21 20 21
39 38 37 39 39 40 45 46 46 47 48 46 46 46 45 45 44 42 40 38 38 36 33 30 27 25 22 20 19 18 20 21 24 23 20 19 20 20 20 20 20 20 20
39 38 39 40 40 44 41 37 35 39 42 43 43 43 43 42 42 40 37 36 32 29 27 26 25 21 20 19 20 21 21 19 21 23 25 24 20 20 21 20 20 20 20
41 41 42 42 44 39 34 32 32 34 37 39 40 40 40 40 37 37 35 30 26 25 24 22 20 18 19 21 23 25 27 27 26 25 23 22 20 20 19 19 20 20 20
36 37 41 43 38 33 33 33 34 34 33 33 34 35 34 33 32 29 26 24 22 21 22 23 27 29 30 31 31 31 31 28 23 20 20 20 23 24 24 23 22 22 22
29 37 32 31 29 31 32 32 31 32 31 29 29 29 27 26 25 25 25 26 27 28 30 30 31 33 34 35 33 28 22 20 19 18 18 18 19 22 24 23 23 23 23
28 25 25 27 29 30 31 31 31 29 29 28 28 26 27 28 28 28 29 30 31 32 32 31 30 32 33 33 32 27 23 22 19 18 18 19 20 23 22 23 24 24 25
27 27 26 29 31 32 31 32 32 32 32 31 31 32 32 31 31 31 31 31 31 31 31 31 31 32 33 31 30 25 20 18 18 19 20 20 21 23 23 23 23 24 24
26 26 27 28 29 31 32 32 33 33 33 32 32 33 32 32 31 31 31 31 31 31 31 31 29 27 27 24 25 22 19 19 18 19 21 23 22 23 23 23 24 25 24
27 27 29 29 29 28 29 29 30 31 32 32 32 32 32 32 31 31 31 31 32 31 30 27 25 25 18 23 19 21 20 19 20 21 21 22 22 24 24 24 22 20 19
31 32 32 32 32 33 32 32 31 30 32 33 33 33 33 32 32 31 31 31 30 28 23 13 14 16 18 19 21 24 21 22 22 21 21 21 24 24 23 22 19 19 21
33 34 33 34 34 33 32 31 30 31 32 32 32 32 32 33 32 31 29 27 18 12 12 13 12 13 13 20 21 23 23 23 22 22 22 22 24 22 20 19 20 21 21
33 34 33 33 35 34 33 31 31 33 33 32 32 32 31 28 21 16 13 11 11 11 11 11 10 11 15 17 23 23 22 22 22 23 23 21 19 18 18 19 20 20 17
33 34 33 32 32 33 33 32 33 32 30 28 23 16 14 13 13 12 12 11 10 9 10 10 10 13 15 17 19 21 21 22 22 21 16 16 16 17 18 17 16 17 17
32 29 27 24 29 32 31 28 26 24 18 16 16 16 13 12 13 13 10 11 12 9 10 12 13 13 14 17 21 21 21 21 20 19 14 14 15 16 16 16 17 17 17
24 22 23 23 23 22 20 20 23 20 16 15 14 12 12 14 16 16 17 19 18 17 19 20 18 16 18 19 20 20 20 19 19 15 14 15 16 16 16 16 17 17 17

GFSMW_sfc_30mbdewp_060.txt.gz
Dewpoint
34 34 33 34 34 36 36 37 47 62 65 64 64 64 63 63 64 64 63 60 58 57 57 57 56 54 51 47 38 31 29 25 23 24 25 28 30 27 30 34 29 30 27
29 30 30 31 32 33 34 35 38 51 63 64 64 64 64 63 64 64 63 61 59 58 56 56 55 52 48 42 35 32 27 23 24 21 23 21 24 28 28 29 27 27 24
27 28 28 29 30 31 32 34 35 40 57 63 64 62 63 62 62 62 63 61 59 58 57 55 54 50 47 43 37 33 31 27 23 24 25 23 23 23 21 27 27 24 22
23 25 28 28 28 29 30 33 34 36 45 61 62 62 61 61 61 62 63 62 59 58 57 56 54 50 47 44 40 37 37 33 28 25 24 21 23 19 14 19 21 20 19
27 27 29 29 29 29 28 29 31 34 38 48 61 62 61 61 60 61 61 61 58 58 57 55 52 48 46 46 43 41 38 38 32 28 26 22 19 16 11 9 18 20 20
32 32 29 32 32 32 32 30 29 30 35 41 52 60 61 60 58 58 60 58 56 56 55 54 51 48 47 45 45 42 40 35 31 29 25 22 18 16 13 11 15 16 16
35 34 33 33 33 33 33 34 33 32 34 38 45 55 60 59 57 57 58 56 55 54 54 52 49 47 47 45 44 42 39 34 30 27 24 21 19 21 19 15 15 12 16
37 36 35 35 35 35 35 35 34 33 34 35 40 47 55 58 58 57 57 56 55 55 53 51 49 47 47 44 41 39 34 29 27 21 21 20 20 19 18 15 14 13 16
37 38 37 35 36 37 36 36 35 35 35 36 36 38 45 53 55 55 55 54 53 50 49 48 47 45 43 40 37 34 29 24 23 21 22 22 22 22 22 21 19 14 10
37 39 39 37 37 38 38 39 38 37 38 40 42 43 45 49 53 52 52 50 48 47 46 46 44 42 39 35 31 26 23 21 23 22 21 21 22 22 23 23 24 22 17
39 39 39 38 39 40 43 44 44 44 46 46 46 46 47 49 49 49 47 46 45 44 43 41 39 36 32 29 25 23 22 21 21 21 21 23 26 27 27 25 23 21 21
40 40 40 39 41 43 40 37 36 39 42 43 44 44 45 46 46 45 43 41 41 39 38 35 32 28 23 21 20 20 22 22 24 26 25 25 27 26 24 23 23 21 21
41 39 39 41 43 39 35 33 34 36 40 42 42 43 43 44 42 41 40 39 37 34 31 28 24 21 21 21 23 26 26 26 27 28 29 29 28 26 23 22 22 22 20
34 34 37 42 38 34 33 34 34 35 37 40 41 41 41 39 38 37 35 32 30 29 26 23 22 22 23 25 27 29 30 30 30 30 28 27 25 24 22 19 19 21 20
30 29 31 32 32 33 32 32 33 32 33 34 35 35 35 35 34 31 30 30 29 27 26 26 28 29 30 31 32 33 32 31 30 30 30 29 28 26 24 24 24 23 22
29 27 27 29 31 31 31 30 29 29 28 29 28 28 29 30 30 30 31 33 30 29 31 31 33 35 36 36 34 31 30 30 27 24 20 19 21 26 26 24 24 24 24
28 27 27 30 30 31 31 31 30 30 30 28 28 29 30 31 32 32 32 31 32 32 33 34 34 35 36 35 33 31 28 27 22 18 19 19 20 23 23 24 24 25 25
27 27 27 31 32 32 32 33 34 33 32 31 31 31 32 32 32 32 32 32 32 32 32 33 33 33 35 35 31 29 24 19 19 20 20 20 22 23 23 23 24 24 25
26 27 29 29 30 31 33 33 33 33 33 33 33 33 32 32 32 32 32 32 32 32 31 32 32 32 33 32 31 26 20 19 18 20 21 23 22 23 24 24 25 25 23
28 29 30 30 29 30 31 32 32 32 31 32 33 33 33 32 31 31 31 31 31 30 30 29 31 32 29 30 26 23 20 19 21 22 22 23 23 24 24 24 22 19 19
31 33 33 33 33 33 32 31 31 31 32 33 33 33 33 32 32 32 32 31 30 28 24 21 18 21 20 23 25 24 22 23 22 22 22 22 24 23 22 22 20 19 21
33 34 33 34 33 33 32 31 30 32 33 33 32 32 32 32 32 31 30 27 19 14 13 13 12 13 15 22 23 23 23 23 22 22 22 23 22 20 19 19 20 22 22
32 34 34 34 34 33 33 31 32 33 33 33 32 32 32 27 23 18 13 12 12 12 12 10 9 12 16 19 23 23 22 23 22 22 22 21 18 18 18 20 21 20 17
32 33 33 33 32 33 33 33 33 33 32 30 23 16 13 12 12 13 12 10 10 9 9 8 10 13 15 17 19 21 21 22 21 21 16 16 17 18 19 17 17 17 17
34 32 31 32 32 33 32 31 29 24 19 15 16 15 13 12 11 10 8 10 9 10 10 12 13 14 15 17 21 21 20 21 20 19 14 14 15 16 16 17 17 17 17
28 25 26 28 30 27 24 25 22 18 16 14 12 13 14 16 17 18 19 20 19 20 20 21 18 16 19 20 21 20 20 19 18 15 14 15 16 16 16 17 17 17 17

GFSMW_sfc_30mbdewp_063.txt.gz
Dewpoint
34 35 35 35 36 36 37 38 44 60 65 65 63 63 63 64 64 64 64 62 60 59 59 59 59 59 58 55 52 43 36 31 29 28 28 30 32 30 36 39 35 35 31
28 28 30 32 33 34 35 37 39 46 62 64 63 63 63 64 64 64 64 63 61 60 59 58 58 57 57 54 48 41 35 31 29 29 29 27 27 30 30 33 31 31 28
24 24 26 29 31 32 33 34 36 39 53 63 64 63 64 63 63 63 63 63 62 60 59 58 57 56 56 53 47 42 40 34 28 28 31 27 29 27 26 29 30 28 27
30 28 30 29 29 30 31 32 35 36 43 59 63 62 60 60 61 62 63 62 62 61 60 58 58 56 55 53 48 43 42 39 34 28 27 26 28 25 21 22 26 25 25
33 32 31 33 33 32 31 31 31 34 37 48 60 61 60 61 61 62 62 62 61 61 60 59 57 56 54 53 48 45 42 42 39 34 30 26 23 19 18 18 20 22 22
36 35 35 35 35 36 36 35 32 31 33 38 50 61 61 61 61 61 61 62 61 60 59 59 58 56 53 51 49 48 44 43 41 37 31 29 24 22 17 13 16 21 21
38 38 36 36 37 38 37 36 36 34 34 36 39 49 60 61 60 60 60 60 57 57 58 58 56 55 53 51 49 48 46 43 40 35 31 27 24 25 23 25 18 16 18
38 39 39 36 37 39 39 38 37 35 36 36 36 41 48 57 59 59 58 59 59 58 58 56 56 53 51 50 49 48 46 43 39 34 26 24 22 23 21 19 20 14 17
38 39 39 39 38 39 40 42 42 40 39 39 40 40 40 44 52 57 57 57 57 55 56 54 52 51 50 49 47 45 41 38 31 28 26 26 26 24 24 22 20 18 16
39 40 40 39 38 40 43 43 41 43 45 46 46 46 46 47 48 51 53 53 52 51 51 50 49 48 47 45 43 39 32 28 26 25 23 24 24 26 27 27 27 29 26
40 40 39 40 41 42 39 37 37 40 42 43 44 45 46 47 48 48 48 49 48 48 48 47 45 43 41 39 34 28 24 22 22 23 23 25 28 29 28 29 28 28 25
39 37 38 40 42 38 35 34 35 38 40 42 43 44 45 46 46 46 45 45 45 44 43 42 39 36 33 28 25 22 22 22 25 28 28 28 30 30 30 30 29 27 26
33 35 39 41 37 35 34 34 34 35 39 41 42 43 44 44 43 42 41 41 40 39 36 33 29 26 23 22 23 25 26 27 28 29 29 31 32 32 32 30 28 27 24
32 31 32 33 33 33 33 33 32 33 36 38 39 39 39 38 37 36 34 33 31 29 27 25 24 25 26 27 28 29 30 31 31 32 32 31 31 30 30 29 28 27 26
31 29 29 31 32 32 30 30 29 29 31 30 31 32 33 32 31 30 31 31 29 29 29 30 31 31 31 32 33 33 33 32 32 32 32 31 31 32 30 28 28 26 24
30 28 28 30 31 31 30 30 30 30 29 30 30 31 32 32 33 33 32 33 34 34 34 35 35 34 35 35 35 32 32 31 30 27 27 28 29 30 29 27 25 24 24
29 27 29 31 31 31 32 32 32 32 31 31 30 31 32 33 33 33 34 34 34 34 34 35 35 35 36 36 35 32 30 28 26 23 21 22 24 26 24 24 24 25 26
27 27 29 31 32 32 33 33 33 33 33 33 32 32 32 33 33 33 32 32 32 32 32 32 32 34 34 34 31 29 26 21 23 26 25 23 23 23 24 24 26 26 26
27 28 29 29 30 32 33 33 33 33 33 33 33 33 33 33 32 32 32 32 32 31 31 32 32 33 33 32 30 23 20 20 21 22 22 23 22 24 24 25 26 23 21
29 30 30 30 31 32 33 33 33 33 32 32 32 33 33 32 32 32 31 31 31 30 31 31 32 32 32 32 31 23 20 21 22 22 22 23 24 24 24 23 21 19 18
32 33 33 33 33 32 33 32 32 31 33 33 33 33 33 32 32 32 31 30 29 28 26 24 22 22 23 28 26 25 23 23 22 21 21 22 24 22 21 21 19 19 22
33 34 33 33 33 33 32 31 30 32 33 33 32 32 32 32 32 30 26 22 19 16 14 13 12 14 20 24 24 24 24 24 22 21 22 22 21 19 20 20 22 23 22
33 34 33 33 33 33 33 31 32 33 33 33 32 31 27 23 18 13 12 12 13 12 11 9 10 14 17 20 23 23 23 23 21 21 22 20 18 19 19 21 21 20 17
31 33 33 32 32 33 33 33 34 34 32 27 18 14 12 12 12 12 11 11 10 9 8 9 12 14 16 18 20 21 21 22 20 20 16 16 18 19 19 18 18 17 18
33 33 33 32 31 33 33 34 32 26 19 15 15 14 13 9 9 10 9 10 9 10 10 13 14 14 17 19 21 21 20 20 19 19 13 15 15 16 16 17 17 17 18
32 30 32 32 32 32 31 29 22 18 15 13 12 13 14 17 19 20 20 22 22 22 21 21 18 18 19 20 21 20 20 18 19 14 14 15 16 16 16 16 17 17 18

GFSMW_sfc_30mbdewp_066.txt.gz
Dewpoint
31 33 34 35 37 37 37 37 38 47 57 64 64 64 63 63 64 65 64 62 61 60 60 59 58 58 58 60 59 55 51 46 45 37 36 34 33 31 34 37 37 36 35
29 28 28 29 31 34 36 38 37 39 45 56 63 63 63 64 64 64 64 64 63 62 60 60 59 58 57 58 59 55 50 48 42 43 43 40 33 30 30 34 35 34 33
27 28 28 27 30 32 34 35 37 38 40 48 55 60 61 63 63 64 64 64 63 63 62 61 61 60 58 57 58 56 51 48 41 41 45 41 41 33 31 30 33 32 32
31 31 33 32 32 33 34 34 35 36 38 43 51 56 58 58 60 61 63 63 63 63 63 62 61 61 60 58 58 56 52 50 43 37 34 34 35 33 30 28 30 30 29
34 34 35 36 37 39 38 36 33 34 36 38 46 54 56 56 58 60 61 61 63 63 62 62 62 61 60 58 57 55 52 51 49 42 36 34 30 27 28 33 26 27 27
37 36 38 39 40 41 40 40 36 34 34 37 40 49 53 56 57 58 59 60 61 62 62 61 61 61 60 58 58 56 53 51 51 45 41 36 35 28 27 25 25 26 25
39 39 38 38 40 42 42 40 38 36 36 37 37 39 48 54 56 57 58 59 60 60 60 61 60 60 59 58 57 55 53 52 50 47 43 38 33 30 28 27 28 27 22
40 40 41 40 39 41 42 43 43 40 38 38 38 38 42 45 53 57 57 58 58 60 59 59 59 59 59 57 56 55 53 52 51 47 42 32 28 27 25 25 25 21 22
40 41 41 41 39 41 43 43 41 43 44 45 44 41 41 42 45 51 55 57 58 59 59 58 58 57 56 54 53 53 52 50 48 40 34 31 29 30 29 29 30 28 24
40 40 39 41 42 43 42 40 40 41 43 45 45 45 47 47 48 49 49 51 53 55 55 56 55 53 52 52 51 49 49 44 39 35 33 32 29 29 29 30 31 31 27
40 38 39 40 43 40 39 38 38 39 42 43 45 46 47 47 48 48 49 49 50 50 51 52 51 50 48 48 45 40 37 36 34 34 31 30 32 30 30 30 30 30 31
37 39 42 42 39 37 37 36 37 37 40 43 45 46 46 46 47 47 46 47 48 48 48 47 46 45 42 39 34 30 28 27 26 28 28 29 31 32 32 32 32 32 31
36 37 38 37 36 36 35 35 34 36 39 41 43 43 42 42 42 42 42 41 42 41 41 39 35 33 29 29 26 26 28 28 28 30 30 31 32 32 33 32 32 31 31
34 35 34 35 34 33 32 32 32 33 35 36 38 38 37 36 36 34 32 30 29 28 28 27 26 27 27 28 28 30 32 33 33 33 33 33 33 32 32 31 30 29 27
33 32 32 33 33 32 31 31 31 31 33 33 35 34 34 33 32 32 32 32 31 31 31 31 31 32 32 33 34 34 34 33 33 32 32 32 33 33 31 30 28 27 26
32 30 31 32 32 32 32 32 31 31 32 32 33 33 33 34 34 34 35 35 35 35 35 36 36 36 36 36 36 34 33 32 30 29 29 31 31 31 31 29 28 26 25
31 29 31 32 32 33 33 32 32 32 32 31 32 32 33 33 34 34 34 33 33 33 33 34 36 36 36 37 35 33 31 30 29 27 28 28 27 27 23 24 25 25 26
29 29 30 32 32 33 34 34 33 33 32 32 32 33 33 33 33 33 32 32 32 32 32 31 32 31 33 33 32 30 27 26 27 27 26 24 22 22 24 24 25 26 26
29 29 30 31 32 33 33 34 33 33 33 33 33 33 33 33 33 32 32 32 32 32 31 32 32 31 32 31 29 26 27 27 26 24 21 22 20 23 26 24 27 23 21
29 30 30 31 31 32 34 34 33 33 33 33 34 34 33 33 32 32 31 32 32 31 32 32 33 31 30 31 28 23 21 19 19 20 20 23 24 24 24 23 21 19 15
31 32 32 31 32 33 33 33 33 32 33 34 34 33 33 32 32 31 31 31 31 29 28 25 24 26 28 27 27 24 22 21 20 20 19 20 23 22 21 21 19 17 22
32 33 32 32 33 33 34 32 31 33 33 33 33 33 33 33 32 29 26 23 21 18 16 15 15 18 22 24 25 25 24 24 20 19 20 20 21 20 21 21 23 24 23
32 33 31 32 33 33 34 32 33 34 34 34 33 32 30 21 14 12 12 12 12 10 8 7 9 13 17 20 24 23 23 23 20 20 21 18 18 19 19 21 22 21 18
32 33 32 32 32 34 35 34 35 34 32 28 24 17 12 12 12 12 11 10 8 5 5 7 10 13 16 19 20 21 19 20 18 21 16 16 18 19 19 18 18 18 18
32 33 33 32 33 34 34 34 34 31 26 17 14 14 12 8 7 8 6 6 9 9 8 13 13 13 15 19 21 21 19 19 18 19 11 13 15 16 16 17 18 18 18
33 33 33 33 33 34 33 33 28 25 15 12 12 12 12 14 16 18 19 23 22 23 22 21 17 17 20 21 22 20 20 18 19 11 11 14 16 17 17 17 18 19 20

GFSMW_sfc_30mbdewp_069.txt.gz
Dewpoint
28 29 31 33 34 35 36 38 39 41 52 57 64 65 64 65 65 63 62 61 60 59 59 59 58 58 58 59 59 57 54 53 52 48 41 41 39 37 37 39 39 39 41
26 29 31 31 32 34 36 37 37 38 40 50 61 63 63 63 64 65 65 64 62 62 60 60 60 59 58 58 59 58 56 53 51 46 44 43 40 37 36 36 38 37 38
28 27 28 29 30 31 33 35 37 38 38 40 48 61 61 62 64 64 64 63 64 64 63 61 61 60 59 58 59 59 57 53 50 47 48 46 45 38 36 34 36 36 36
30 31 33 33 34 34 35 35 36 37 38 40 41 46 56 58 60 61 62 62 63 63 64 63 62 62 61 60 58 59 58 54 51 46 47 45 39 40 35 34 33 35 34
33 34 36 37 38 41 40 38 35 35 35 37 39 43 49 54 56 56 58 60 63 63 63 63 63 62 62 61 60 59 59 54 52 47 44 42 39 36 35 33 31 32 32
35 35 38 39 41 42 41 40 37 34 34 36 37 40 46 51 55 55 56 57 59 62 62 62 62 62 62 61 61 60 59 56 55 50 48 43 44 39 35 34 32 31 30
38 38 38 38 41 42 43 42 40 37 37 37 36 38 42 48 52 54 55 56 58 60 61 62 61 61 61 61 60 60 58 56 56 54 50 45 45 38 38 36 31 29 25
39 40 41 41 40 42 43 44 43 43 42 40 39 38 39 40 43 50 54 55 56 57 61 61 61 61 60 60 60 59 58 57 56 55 51 47 39 34 33 33 30 25 23
40 41 41 41 41 42 43 42 41 42 43 44 44 43 41 41 42 45 49 53 55 56 58 60 59 59 60 59 58 57 56 55 54 53 47 38 36 36 36 36 38 37 34
40 39 39 40 42 42 41 40 40 41 43 44 45 45 46 47 47 48 48 49 50 51 54 53 56 56 55 55 55 54 53 52 45 42 40 38 38 36 37 36 36 36 34
39 39 40 42 41 40 39 38 39 40 41 43 45 46 46 47 47 48 48 48 48 49 50 50 51 51 51 51 49 46 44 41 38 37 35 35 35 35 35 35 34 34 34
38 40 42 40 39 38 38 37 37 38 40 42 44 44 44 45 45 44 45 45 46 46 47 48 48 47 46 43 41 40 37 37 35 34 34 33 33 34 34 34 34 33 32
37 38 38 37 37 36 35 34 34 36 38 40 41 40 40 39 38 37 36 37 37 36 35 34 35 34 34 30 30 30 30 31 32 32 33 34 33 33 33 33 32 32 32
36 36 36 36 36 34 33 33 33 34 35 38 38 37 36 36 35 34 33 32 31 30 30 29 29 29 29 30 32 32 33 34 35 35 35 35 34 33 32 32 31 31 30
35 34 35 35 34 33 33 33 33 34 34 35 36 36 35 35 35 34 34 33 33 32 32 32 33 34 34 34 35 35 34 34 33 33 33 33 34 34 32 30 30 29 27
34 32 33 33 33 33 33 33 33 33 33 34 34 35 35 35 35 35 35 35 36 36 36 37 37 36 37 36 36 33 32 31 31 30 32 33 33 33 32 31 31 31 27
33 32 33 33 33 34 33 33 33 33 33 32 33 34 34 34 34 34 34 34 34 34 33 33 33 33 35 36 35 33 31 30 29 30 30 29 28 29 26 25 25 25 26
31 31 32 33 33 34 35 34 34 33 33 33 33 34 34 34 34 34 33 33 33 32 32 31 32 31 33 34 33 32 31 31 30 30 29 25 22 22 25 24 25 26 26
30 31 32 33 34 34 34 34 34 34 34 33 33 34 34 34 33 32 33 33 32 32 32 32 31 30 30 30 30 29 30 29 28 28 27 23 20 24 26 25 28 25 22
31 31 31 32 32 33 34 34 34 34 34 34 34 34 34 32 32 32 32 33 33 32 32 32 31 30 29 28 25 22 20 19 19 20 20 23 25 25 25 23 21 20 17
31 31 31 31 32 33 34 34 34 33 34 35 34 34 34 32 32 32 33 33 32 30 28 25 27 26 26 27 26 25 22 21 20 19 19 20 23 22 22 22 21 18 22
32 32 32 32 33 33 34 33 32 33 34 34 34 33 34 33 33 32 29 25 23 19 16 16 16 20 22 24 25 25 24 24 19 17 19 20 21 20 21 21 21 24 24
32 33 32 32 33 32 34 32 33 34 34 34 34 33 31 24 16 15 14 12 11 9 7 8 10 13 17 19 23 23 22 22 19 20 22 19 18 19 20 21 23 22 20
32 32 31 32 32 32 34 35 35 35 33 32 29 20 12 12 13 13 11 9 7 5 6 8 10 13 15 18 20 20 19 20 18 21 19 14 18 19 20 19 18 19 19
32 32 32 32 32 33 34 35 34 32 29 21 14 13 13 10 8 8 10 7 15 16 9 13 12 13 14 19 22 22 20 21 19 21 12 11 14 16 17 17 18 19 19
32 33 33 32 33 35 34 34 33 30 20 13 14 12 11 12 16 18 21 24 23 23 22 21 19 17 20 21 22 21 21 20 19 15 10 12 16 17 18 18 19 21 22

GFSMW_sfc_30mbdewp_072.txt.gz
Dewpoint
29 30 30 30 33 36 39 40 41 47 60 64 65 64 64 65 65 65 62 61 59 58 58 59 59 58 58 60 59 58 55 54 53 49 44 43 41 39 39 41 41 42 43
27 27 31 32 33 34 36 38 38 41 43 52 64 64 64 64 64 65 65 65 63 60 59 59 59 59 58 59 59 58 57 54 54 49 43 40 41 39 38 38 40 40 42
29 29 29 31 32 32 34 37 38 38 40 41 50 64 63 63 63 63 64 64 64 64 63 60 60 60 59 59 59 59 58 55 53 49 45 46 45 39 39 36 38 39 39
30 32 34 34 36 39 38 37 37 37 38 41 41 53 62 61 63 63 64 63 63 64 64 64 62 61 61 60 60 60 59 57 53 51 48 49 44 40 36 36 35 37 37
32 35 36 38 41 42 42 40 37 36 36 36 38 40 43 50 59 61 62 62 63 63 63 63 63 63 62 62 61 60 59 59 55 51 49 48 45 40 38 34 33 35 36
35 38 39 42 43 44 43 41 38 36 35 35 37 38 40 43 50 56 56 56 58 62 63 63 62 62 62 62 62 61 60 59 57 53 50 48 47 45 40 39 34 33 33
37 38 39 40 42 43 45 44 43 41 40 39 37 37 39 43 47 51 55 56 57 58 61 62 61 61 61 61 62 61 61 60 57 55 51 50 49 47 44 42 36 33 29
40 41 42 41 41 43 44 42 42 43 44 45 44 42 39 42 43 45 48 54 55 57 59 60 61 61 61 61 61 60 60 59 58 57 55 52 47 43 41 42 38 34 31
41 40 41 42 43 43 42 41 41 43 44 44 45 45 47 47 48 47 46 49 53 54 56 56 58 59 59 60 60 59 58 58 57 56 53 45 40 39 38 38 39 40 36
40 39 40 41 42 41 40 40 40 41 42 44 46 46 46 47 48 48 48 48 49 50 50 51 53 54 54 54 55 54 53 52 48 45 43 41 39 39 39 39 40 41 39
39 40 41 42 40 39 39 38 39 40 42 43 45 46 46 46 47 46 46 47 47 47 47 49 49 49 49 49 48 47 45 45 42 40 39 38 37 38 38 37 38 37 37
39 41 42 39 38 38 37 36 37 38 40 42 42 41 41 39 37 36 38 39 39 37 37 40 39 38 37 39 41 39 39 38 37 36 36 36 36 36 36 36 35 34 34
38 40 38 37 36 35 34 34 34 35 38 39 39 38 37 36 35 34 33 32 31 30 30 30 30 30 29 30 31 32 33 34 34 35 34 35 35 34 34 34 33 33 32
37 37 37 36 35 34 34 33 34 35 37 37 37 36 35 34 34 34 33 33 32 32 32 32 33 33 34 34 34 35 35 35 35 35 35 35 34 34 33 33 32 31 29
36 36 36 35 35 33 33 34 34 34 35 36 36 35 36 35 35 35 35 35 35 35 35 35 35 35 35 35 35 34 34 33 33 34 34 35 35 35 34 32 31 30 28
35 34 35 34 33 34 33 34 33 33 34 34 35 35 35 35 35 35 34 34 36 36 35 36 37 36 36 36 35 32 31 31 31 31 32 32 32 34 34 33 32 30 28
34 33 33 33 34 34 34 33 33 33 33 33 34 34 34 34 34 34 34 34 32 33 33 33 34 35 35 36 34 32 31 30 30 30 31 31 31 30 29 26 25 26 27
33 32 33 33 34 34 34 34 34 33 33 34 34 34 34 34 34 33 33 32 32 31 31 31 32 33 35 35 33 32 31 31 30 30 30 29 26 26 28 27 26 27 27
32 32 33 33 34 34 34 34 34 34 33 33 35 34 35 34 33 32 32 32 31 30 31 31 30 30 30 30 29 29 30 28 27 27 26 24 23 25 26 25 27 25 21
31 32 32 33 33 34 34 34 34 34 34 34 34 33 33 33 32 32 31 32 33 31 31 31 30 29 27 25 24 25 26 22 22 21 23 24 25 25 25 23 21 20 17
31 31 31 32 33 34 34 34 34 33 35 35 33 33 33 33 33 31 33 32 30 29 28 28 27 27 27 26 27 26 24 22 21 19 19 21 23 22 22 22 21 19 22
32 32 32 33 34 34 35 33 32 34 35 34 34 33 33 33 32 31 29 27 25 21 18 18 19 22 25 26 25 24 24 24 19 18 21 22 21 20 21 21 23 25 25
32 33 33 33 33 33 35 33 33 34 34 34 34 33 33 32 32 23 19 16 13 11 9 10 13 15 18 23 22 23 22 21 20 21 21 20 17 19 20 21 22 22 19
32 33 32 32 31 33 34 34 35 35 34 33 33 30 18 13 13 13 12 10 8 6 8 9 12 14 16 20 22 22 21 22 20 22 21 15 16 18 20 20 19 19 19
32 32 32 32 31 33 34 35 35 34 33 30 19 13 14 13 13 22 13 14 21 18 12 14 14 15 17 21 23 22 21 22 20 21 15 11 14 17 18 18 18 19 20
33 32 32 32 31 33 34 35 34 32 25 15 14 13 11 9 17 21 23 25 24 23 22 21 19 19 20 22 22 22 22 21 19 17 11 12 17 18 19 19 20 21 21

GFSMW_sfc_30mbdewp_075.txt.gz
Dewpoint
29 28 31 33 34 34 41 52 57 64 64 64 64 63 63 64 65 64 62 59 58 58 57 58 59 59 59 59 59 56 54 54 53 50 46 44 42 41 42 43 42 47 51
29 29 31 32 33 34 36 38 39 45 62 64 65 64 64 64 64 64 65 65 64 60 58 58 58 59 58 59 59 58 56 55 53 50 44 43 42 41 40 39 41 41 44
29 29 32 33 33 34 36 36 37 39 39 48 64 64 64 63 63 63 63 64 64 65 63 61 59 59 59 58 59 59 57 56 54 50 48 44 44 42 40 39 38 40 42
30 34 35 36 37 40 40 38 37 36 37 37 44 63 62 62 61 62 63 63 63 63 63 63 63 61 60 59 59 59 59 57 55 54 49 49 47 42 42 39 39 39 39
33 35 37 39 41 42 41 41 37 35 35 36 37 40 49 55 60 62 63 63 63 63 62 62 63 63 61 60 60 60 59 59 57 54 53 51 49 43 41 40 38 39 40
36 37 40 42 44 44 44 44 37 38 38 36 36 37 38 40 42 50 58 61 62 62 62 62 63 62 62 62 62 62 60 60 59 56 54 51 50 49 44 41 38 38 37
37 38 41 42 43 44 43 43 44 44 44 44 43 40 38 39 42 46 51 55 57 57 61 62 62 61 61 60 61 61 61 60 59 58 55 53 51 51 49 45 41 38 37
38 41 41 42 43 43 42 41 43 44 44 45 45 46 46 45 46 46 48 52 55 58 59 60 61 61 61 61 61 60 60 60 59 58 56 53 52 50 48 47 43 37 34
41 41 42 43 43 41 40 40 42 42 44 45 46 46 46 47 48 49 49 49 51 53 53 55 57 57 57 57 57 57 57 57 55 54 53 49 44 44 43 43 44 45 40
40 40 41 42 40 39 39 39 41 42 43 45 46 46 47 47 47 47 47 47 48 49 50 50 50 50 50 51 52 52 51 51 48 46 46 43 41 41 41 42 42 43 42
39 40 42 40 39 38 37 38 39 41 42 44 42 41 39 38 39 39 41 41 40 41 45 46 46 45 46 46 46 44 44 44 42 41 40 39 39 39 39 39 40 40 39
40 42 40 39 38 36 35 36 37 38 40 40 38 37 36 35 33 32 32 32 31 32 33 35 35 33 35 37 39 40 39 39 38 37 38 37 37 37 37 37 36 35 35
41 40 38 37 36 35 34 34 35 37 38 37 36 35 34 34 33 33 32 32 31 31 31 31 31 31 31 33 34 35 35 35 35 35 36 35 35 34 34 34 34 33 33
39 39 37 36 35 34 34 34 34 36 37 36 35 35 34 34 34 34 33 33 33 33 33 34 34 35 35 35 35 35 35 35 35 35 35 35 34 34 33 33 32 32 31
37 37 36 35 34 34 34 34 34 36 36 36 36 35 35 35 35 35 36 36 36 36 36 36 36 35 35 34 34 34 34 33 33 34 35 35 35 35 34 32 32 32 31
36 36 36 35 33 33 33 33 33 34 35 35 35 35 35 35 35 34 35 35 35 35 35 36 35 35 35 35 34 32 32 32 32 31 32 32 32 34 34 35 35 31 30
35 35 34 33 34 33 34 33 33 33 34 34 34 34 35 34 34 34 33 33 33 33 33 34 35 35 36 35 34 32 30 30 30 30 30 30 30 30 29 29 28 27 28
35 33 34 34 34 34 33 33 34 34 34 34 34 35 35 34 34 33 32 32 32 31 32 32 34 35 36 35 33 32 30 30 30 29 28 27 27 26 28 27 26 26 27
33 33 34 34 35 35 34 34 33 33 34 34 34 35 35 33 33 32 32 31 31 30 30 30 29 29 30 29 29 28 26 25 25 26 25 25 23 26 27 24 22 23 20
32 33 34 34 34 34 34 34 34 34 34 34 34 34 34 33 32 32 32 32 31 31 31 29 28 28 26 26 27 27 25 22 23 24 23 24 24 24 24 22 21 19 18
32 32 33 33 34 35 35 34 34 34 35 34 33 34 34 33 33 32 32 30 30 28 28 27 27 26 27 27 27 25 23 21 20 19 20 21 23 22 22 22 21 19 21
32 32 32 33 34 35 35 34 33 34 34 34 33 33 33 33 32 31 30 29 25 22 20 21 22 24 26 26 24 23 24 23 18 19 21 22 21 20 21 21 23 24 25
32 33 33 33 34 35 35 33 33 34 34 33 33 33 33 32 31 28 25 22 18 14 13 13 14 17 22 22 23 23 22 22 20 20 22 21 16 19 20 22 22 22 19
32 33 33 32 32 33 34 34 35 35 34 33 33 32 32 31 29 20 17 12 10 8 9 11 13 15 17 21 22 21 21 23 20 22 19 18 16 18 20 20 19 19 19
33 33 32 31 31 32 34 35 35 35 33 33 32 29 22 16 16 16 10 13 19 11 9 12 14 14 17 21 23 22 22 22 21 20 16 11 14 17 18 19 20 21 22
32 32 32 32 32 33 34 35 35 34 33 30 21 14 14 13 20 21 23 24 24 24 23 22 17 20 21 22 22 22 22 22 19 18 12 13 17 18 19 19 20 21 21

GFSMW_sfc_30mbdewp_078.txt.gz
Dewpoint
30 30 30 35 40 47 60 63 64 64 64 63 63 63 63 64 65 61 59 58 57 58 57 57 58 59 59 58 58 56 54 54 54 51 49 47 46 43 43 44 44 53 55
28 30 31 32 34 36 42 51 55 61 64 64 64 63 63 63 64 64 64 62 59 58 58 57 58 58 58 59 59 58 56 55 53 52 47 48 47 44 42 42 43 43 51
28 30 32 33 34 35 36 37 38 39 51 62 64 64 63 63 63 63 64 64 64 63 60 58 58 59 59 58 59 59 57 57 55 52 51 46 47 44 43 41 40 41 43
29 32 33 35 37 39 39 38 37 37 37 39 54 64 63 62 62 62 63 63 63 64 64 63 61 59 59 59 58 59 59 57 56 55 53 50 47 46 45 40 43 42 42
32 34 36 39 41 41 41 40 36 35 35 36 38 55 61 61 60 61 62 61 62 63 63 63 63 62 61 60 59 59 59 59 58 55 53 52 50 45 44 46 43 42 43
35 37 40 42 43 44 44 40 42 44 43 38 37 37 38 41 43 45 54 60 62 62 62 62 61 61 62 62 61 60 60 59 59 59 56 54 52 51 47 45 43 42 39
37 40 42 43 44 43 42 44 44 44 45 45 45 41 39 39 41 44 48 53 56 58 61 61 61 61 61 61 61 61 61 60 59 59 58 56 55 53 52 51 46 42 40
38 40 42 43 44 42 41 43 43 43 45 45 46 46 47 47 47 47 50 53 56 57 58 59 60 60 61 61 60 59 59 59 59 58 58 57 55 52 51 50 48 42 39
39 41 41 43 42 41 40 41 42 43 45 46 46 46 47 48 48 48 49 50 51 52 54 55 55 55 55 56 56 55 54 54 51 50 50 49 46 46 46 47 47 47 43
41 41 42 41 40 39 39 41 42 42 44 45 44 45 45 45 45 45 45 45 46 49 49 49 49 48 48 49 49 48 48 48 46 45 45 43 42 42 42 43 43 44 44
40 41 41 40 39 38 38 39 40 42 42 41 39 37 36 35 35 36 36 36 37 41 43 43 41 42 44 46 45 44 44 44 42 41 40 39 40 39 39 40 40 40 40
40 41 40 38 37 36 36 37 38 40 39 38 36 35 34 33 33 32 31 32 32 32 33 32 33 34 35 38 40 40 39 40 39 38 38 37 37 37 37 36 36 35 35
41 40 39 37 36 34 34 35 37 38 37 36 35 34 34 33 33 33 33 33 33 33 33 33 33 34 34 35 35 36 36 36 36 36 36 36 35 35 35 34 33 33 33
41 39 38 36 35 34 34 34 36 37 36 35 35 35 34 34 34 34 34 34 34 34 34 35 35 35 35 35 35 35 34 35 35 35 35 35 34 34 33 33 32 31 31
40 39 37 35 34 34 33 34 35 37 36 36 35 35 35 35 35 36 36 36 36 36 36 35 35 35 34 34 34 34 33 33 33 35 35 35 36 35 34 32 32 32 32
38 38 37 35 34 33 33 34 35 36 36 36 35 35 35 35 35 35 35 35 35 35 35 34 34 34 35 35 35 33 32 32 32 31 32 32 31 33 35 35 33 31 30
37 36 36 35 34 33 34 33 33 35 35 35 35 35 35 34 34 34 34 33 33 34 34 35 36 36 35 35 35 32 29 30 30 29 29 29 29 28 28 28 28 28 28
36 36 35 34 34 34 33 33 34 34 34 34 34 35 35 34 33 33 32 32 32 33 33 34 35 35 36 35 34 32 29 28 28 27 25 25 25 26 28 27 26 26 26
36 35 34 34 34 33 33 34 34 34 34 34 35 35 35 33 33 32 31 32 31 31 31 31 30 29 29 29 28 26 25 24 24 25 25 24 25 27 27 23 22 22 20
34 34 34 34 34 34 34 33 33 34 34 34 35 35 34 33 32 32 32 32 31 29 28 27 27 28 26 29 28 26 24 22 23 23 21 25 24 24 23 22 21 19 19
33 34 34 34 34 35 35 34 34 34 35 34 35 34 34 33 32 32 32 30 29 29 27 26 26 26 27 27 26 25 21 21 20 19 20 20 24 22 21 23 20 19 21
33 33 33 34 35 35 35 34 34 35 34 34 34 33 33 33 32 31 30 29 27 25 24 24 24 25 26 25 24 24 24 22 18 19 21 21 22 19 21 21 23 24 24
32 32 33 34 35 35 35 34 34 34 34 33 33 33 33 31 31 29 27 25 21 19 19 19 20 20 22 22 25 24 23 23 20 20 23 23 18 19 19 22 23 23 19
32 33 33 33 33 35 35 35 35 34 34 32 32 33 32 31 30 27 24 19 16 12 11 12 13 15 17 20 22 21 21 22 21 21 20 18 17 18 20 20 19 19 20
33 33 33 32 32 33 34 35 35 35 34 33 33 32 31 30 27 20 16 12 11 10 9 11 13 14 16 21 23 23 22 22 22 20 15 11 14 17 18 19 20 21 22
33 33 33 32 32 32 34 35 35 35 34 33 32 30 27 20 18 15 18 23 25 23 20 19 16 18 20 23 24 22 22 22 21 18 13 12 17 18 19 19 20 20 20

GFSMW_sfc_30mbdewp_084.txt.gz
Dewpoint
35 34 33 38 58 60 62 63 63 64 64 63 62 62 62 63 61 60 61 61 62 61 59 58 57 56 55 55 56 55 55 55 55 54 53 52 52 52 51 49 47 47 50
36 34 31 30 36 54 59 61 62 63 64 63 63 62 62 63 63 63 60 60 59 60 60 59 58 57 57 56 56 55 54 54 54 53 51 52 52 50 48 47 46 45 46
36 33 31 31 32 38 47 56 61 63 63 63 63 63 62 62 62 63 63 62 60 59 59 58 58 58 58 57 58 57 56 55 55 53 54 51 50 49 49 45 44 44 44
33 31 31 33 34 36 37 40 43 49 52 62 63 62 62 61 61 61 62 63 63 62 60 59 58 58 58 58 58 58 58 57 57 55 54 54 51 52 50 47 44 44 42
31 30 32 35 38 39 38 37 36 37 36 38 51 61 62 62 61 61 61 61 62 63 63 63 61 59 58 58 58 58 58 58 57 57 55 54 52 50 50 50 51 45 44
33 31 35 40 42 41 40 41 41 42 41 38 37 38 47 56 58 59 58 59 59 60 61 62 62 62 61 60 59 59 58 58 58 58 57 56 54 52 50 49 50 50 47
32 32 37 41 42 41 43 43 43 44 45 44 43 42 39 39 42 46 47 47 50 55 58 60 60 61 61 61 60 60 59 59 59 58 58 57 57 55 53 52 51 50 45
33 35 40 42 42 43 43 43 44 44 45 45 46 47 47 46 46 47 48 51 53 54 55 57 59 59 60 60 60 59 59 58 56 55 55 55 52 53 53 52 51 47 44
35 39 42 42 41 42 42 43 44 45 45 45 46 46 46 46 47 47 48 49 50 52 52 53 54 55 56 58 57 55 53 51 50 49 49 49 46 46 47 48 49 48 44
40 42 43 41 40 41 42 42 43 43 43 43 42 41 41 42 42 41 42 43 45 47 47 48 48 48 49 50 50 49 48 46 46 45 45 44 42 42 43 43 44 45 45
40 42 41 40 39 40 41 42 43 41 40 38 37 36 35 35 35 35 35 36 37 38 39 40 42 44 45 46 46 46 45 44 43 42 42 41 41 40 40 39 40 40 40
41 41 40 39 38 39 39 41 41 39 38 36 35 34 34 33 33 33 33 33 34 34 35 36 37 38 39 40 41 41 41 41 40 40 39 39 38 37 37 37 36 36 36
41 40 39 37 37 37 37 39 39 37 36 36 35 34 34 33 33 33 34 34 35 35 35 36 36 36 37 37 37 37 37 37 37 37 37 36 36 35 34 34 33 33 33
41 39 38 37 36 35 36 38 38 37 36 35 35 34 34 34 35 35 35 35 35 35 35 35 35 35 35 35 35 35 34 34 34 34 34 33 33 32 31 31 31 31 31
40 39 38 37 35 35 35 37 37 36 36 35 35 35 35 35 35 35 35 35 35 35 35 34 34 34 35 35 35 35 34 34 34 35 36 36 36 35 33 31 30 30 29
40 40 39 37 35 34 34 36 36 36 36 35 35 35 35 35 35 35 35 35 35 34 34 35 35 35 36 36 35 34 34 34 33 31 31 30 31 33 34 32 32 30 27
40 40 39 38 36 34 34 35 36 36 36 36 36 35 35 35 35 34 35 35 35 35 35 35 35 35 35 36 35 34 32 31 29 26 25 26 28 27 26 29 30 29 30
39 40 40 38 36 35 34 35 36 36 35 35 35 35 35 34 34 34 34 34 34 34 34 35 35 36 36 35 33 31 27 24 23 23 23 24 26 28 24 26 26 23 22
39 39 39 38 36 34 34 34 35 35 35 34 35 35 35 34 34 33 33 33 33 33 32 31 31 30 31 31 29 25 23 23 24 24 24 25 25 26 26 21 22 21 19
37 37 37 36 35 34 34 33 34 34 34 34 35 35 35 34 33 33 32 32 32 30 28 27 27 29 28 27 26 23 22 22 22 21 22 26 24 23 24 21 19 17 18
35 35 35 35 34 34 34 33 34 34 34 35 35 35 35 34 33 32 32 31 29 26 26 26 26 26 27 27 26 24 20 19 20 19 19 20 25 22 22 24 18 20 22
35 35 35 34 34 34 34 33 33 35 35 35 35 34 34 34 33 32 30 29 27 25 24 25 25 25 24 26 27 26 23 21 17 17 20 21 24 19 21 23 22 24 23
34 34 34 34 35 34 34 33 34 35 35 35 34 34 33 33 32 30 29 28 26 24 23 23 22 23 23 23 25 24 24 25 20 20 22 23 22 20 20 22 23 24 19
33 34 34 34 34 35 35 35 35 35 34 34 33 33 32 32 31 30 28 27 25 23 22 20 19 19 19 19 22 22 21 23 21 21 21 19 19 21 21 21 20 19 19
32 33 33 33 33 34 34 35 35 34 34 33 33 32 32 31 30 29 28 26 24 21 18 16 14 13 13 16 21 22 20 20 22 22 15 11 13 15 17 19 20 21 21
33 32 33 33 33 33 34 35 35 34 33 33 32 32 32 31 30 28 25 27 23 22 22 18 14 14 17 19 24 26 25 24 23 20 16 12 13 15 17 17 19 20 20

GFSMW_sfc_30mbdewp_087.txt.gz
Dewpoint
44 40 36 42 59 61 63 64 64 64 64 63 63 63 63 63 63 63 63 63 64 63 61 61 60 58 58 57 57 57 56 56 56 55 55 55 55 55 55 54 53 51 50
42 40 36 32 34 56 60 62 63 64 64 64 63 63 63 63 64 63 62 62 62 63 62 61 60 59 58 57 56 56 55 55 55 54 53 53 54 53 52 52 51 50 49
40 40 37 35 32 34 51 60 62 63 64 64 63 63 63 62 63 63 63 62 60 60 61 61 60 59 59 59 58 57 56 56 56 56 55 52 52 51 52 48 46 46 46
39 35 33 33 33 34 37 44 56 61 63 63 63 63 62 61 62 62 63 63 62 61 60 60 59 59 60 59 59 59 58 57 57 56 54 56 54 53 52 51 48 45 45
37 37 34 33 35 38 38 39 41 44 45 56 62 63 62 62 62 62 62 62 63 63 63 61 60 59 59 59 59 59 58 58 58 58 56 55 54 53 52 51 52 49 46
34 34 33 37 39 40 39 39 40 41 39 39 41 53 59 60 60 60 60 60 61 61 62 63 63 62 60 59 59 59 59 58 58 59 57 56 55 53 52 50 51 51 50
35 34 34 38 40 40 41 43 43 43 44 43 42 41 39 40 44 48 50 51 51 54 57 59 61 62 62 62 61 60 60 59 59 59 59 58 57 56 54 53 52 51 47
35 34 36 39 40 41 43 43 44 44 45 45 46 47 47 46 46 47 48 50 52 54 55 56 58 60 60 60 61 60 60 60 59 57 56 55 53 53 54 53 51 48 46
31 34 38 41 41 43 43 44 44 45 45 46 46 45 46 46 47 47 49 49 50 51 52 53 54 55 58 59 59 57 55 54 52 51 50 49 47 47 48 49 50 49 45
34 39 42 41 42 42 43 44 44 44 44 43 43 42 42 41 41 41 42 44 45 46 47 48 49 49 50 52 53 51 49 49 48 47 46 45 44 43 44 45 45 46 47
39 42 41 41 41 41 42 43 42 42 40 39 38 37 36 36 36 36 36 37 38 38 40 42 44 45 46 47 48 47 46 45 44 44 43 42 41 41 40 41 41 41 42
41 41 40 39 40 40 41 42 41 39 38 37 36 35 35 34 35 34 34 35 36 36 37 38 39 40 41 42 43 43 43 42 42 41 40 39 39 38 38 38 37 37 38
41 40 39 39 39 39 40 40 39 38 36 36 35 34 34 34 34 34 35 35 35 36 36 37 38 38 38 38 38 39 39 39 39 39 38 37 37 36 35 35 35 34 34
40 39 38 38 37 37 38 39 38 37 36 36 35 35 35 35 35 35 35 35 35 35 35 35 36 36 36 36 36 36 36 35 35 35 35 34 34 33 33 33 32 32 33
40 39 38 37 36 36 36 38 37 36 36 36 35 35 35 35 35 35 35 35 35 35 35 35 35 36 36 36 36 35 35 35 35 36 36 35 34 34 33 32 31 31 31
40 40 39 38 36 35 35 37 37 36 36 36 35 35 35 35 35 35 35 35 35 35 35 35 36 36 37 38 37 35 35 34 33 32 32 32 32 34 34 33 32 29 28
40 40 40 39 37 35 35 36 37 36 36 36 35 35 35 35 35 35 35 35 35 35 35 35 36 36 36 36 36 35 33 32 31 29 28 29 28 28 29 31 30 30 31
40 41 40 39 38 36 35 35 36 36 36 35 35 36 36 35 35 35 35 35 35 35 35 35 36 36 36 36 35 33 29 26 24 25 26 27 27 26 26 26 26 24 27
40 40 41 40 38 36 35 35 36 36 35 35 35 35 35 35 34 34 34 34 34 34 33 34 34 34 34 34 31 25 24 24 24 25 26 26 26 28 23 24 24 21 20
36 38 39 38 37 35 34 35 35 35 35 35 35 35 35 35 34 34 33 34 33 32 30 29 29 29 28 27 26 23 23 23 23 24 26 26 24 24 26 19 17 18 18
36 36 36 37 36 35 34 34 34 34 35 35 35 36 35 35 34 33 33 32 31 28 27 27 28 28 28 28 26 24 20 20 20 19 19 22 25 22 23 23 17 19 23
35 35 35 35 35 35 34 34 34 35 35 36 36 35 35 34 33 33 32 31 28 26 25 26 26 25 26 28 26 23 21 22 18 17 19 21 23 20 22 24 23 27 24
34 35 35 34 34 34 34 34 34 35 35 35 35 34 34 34 33 31 30 29 26 24 24 24 24 24 23 25 27 26 26 23 18 19 22 24 23 21 20 22 24 26 20
33 34 34 34 34 34 34 34 34 35 35 35 34 34 33 32 32 30 29 28 26 24 23 22 21 22 22 22 24 25 25 25 23 23 22 19 20 19 20 22 22 19 19
33 33 34 34 34 34 35 35 35 35 34 34 34 33 33 32 30 30 29 28 26 24 23 22 20 18 17 18 21 22 20 20 20 20 15 11 12 15 17 18 19 20 21
33 33 33 33 33 34 34 35 35 35 34 33 33 32 32 31 30 29 29 30 28 28 26 22 18 15 16 18 22 25 24 23 24 22 16 13 11 14 15 17 18 20 21

GFSMW_sfc_30mbdewp_090.txt.gz
Dewpoint
39 41 40 40 60 62 62 62 62 65 66 66 65 65 65 65 65 64 65 64 64 63 63 62 61 61 60 59 59 58 57 57 57 56 56 56 56 56 56 56 56 54 54
39 41 41 36 50 60 62 63 62 63 65 65 65 65 65 66 66 66 65 64 64 64 63 62 62 61 61 60 59 58 57 57 57 55 56 54 54 55 55 54 54 53 52
40 40 41 41 39 42 57 62 62 63 65 65 64 64 64 64 64 65 65 64 64 63 63 63 62 62 61 60 60 59 58 57 58 57 56 54 53 53 53 53 51 50 49
41 40 39 39 38 37 38 47 60 63 64 65 64 63 63 62 63 63 65 65 63 62 62 62 62 62 61 61 61 61 60 59 58 58 57 57 57 54 53 53 52 49 48
39 40 39 39 37 40 40 42 47 58 62 64 64 64 63 64 64 63 63 63 64 64 63 62 61 61 60 61 61 61 60 59 59 59 59 57 56 55 54 52 53 52 48
37 38 39 38 39 42 41 42 43 45 47 56 61 63 63 63 62 62 62 63 63 63 64 64 64 63 62 61 60 60 60 60 60 59 59 58 56 55 54 53 53 53 51
36 36 37 38 40 41 41 42 42 43 42 42 43 46 52 55 56 56 56 56 56 58 60 61 62 62 63 62 62 62 61 61 60 60 59 59 58 57 56 54 53 52 51
36 36 36 37 40 41 42 41 42 43 43 43 44 45 43 42 43 45 45 47 50 52 55 55 58 59 60 61 62 62 62 62 61 60 60 57 54 55 55 54 53 50 50
33 35 37 38 39 41 42 42 43 44 45 45 45 46 46 47 47 48 50 50 51 51 53 54 55 56 58 60 61 61 59 59 56 54 53 51 49 50 50 51 52 51 46
30 31 35 38 40 42 43 44 43 44 45 45 45 44 44 44 45 45 46 47 48 48 50 51 52 53 54 55 56 54 52 52 50 50 49 48 47 46 47 47 47 48 49
34 33 37 40 42 43 43 44 43 43 43 42 42 42 41 41 41 41 41 42 42 43 45 45 47 48 49 50 50 49 49 48 47 48 47 45 44 43 43 44 44 45 45
38 39 39 41 41 42 43 42 42 41 41 40 40 39 39 39 39 38 38 39 39 39 40 42 43 43 44 46 47 46 47 46 45 44 43 41 41 41 41 42 41 42 42
40 40 40 40 41 41 42 42 41 40 39 38 38 38 37 37 37 37 37 37 38 38 39 40 40 41 41 42 43 44 43 43 43 42 42 40 40 39 39 39 39 38 38
40 40 40 40 40 40 41 40 40 39 38 38 37 37 37 37 36 36 36 37 37 37 38 38 38 39 39 39 40 40 40 39 39 39 38 38 38 37 37 36 36 36 36
40 40 40 39 39 39 39 40 39 38 38 37 37 37 37 37 36 36 36 36 36 36 37 37 37 38 38 38 39 39 38 37 36 36 36 36 35 35 34 35 35 35 34
40 40 40 39 39 38 38 39 38 38 38 37 37 37 36 36 37 36 36 36 36 36 36 37 37 37 37 38 38 38 38 37 36 36 36 36 36 36 35 33 31 30 31
39 40 40 40 39 38 38 37 38 37 37 37 36 36 36 36 37 37 36 36 36 36 36 37 37 37 38 38 38 37 36 35 34 34 34 31 31 32 32 32 31 31 29
39 40 41 41 40 38 37 37 37 37 37 37 36 36 37 37 36 36 36 37 36 36 37 36 37 37 37 36 37 35 33 31 30 29 28 26 25 25 25 24 25 26 25
39 40 41 41 41 39 37 36 37 37 37 36 37 37 37 36 36 36 36 36 35 35 35 36 36 36 36 35 34 31 28 25 24 25 27 27 27 26 25 25 24 22 26
40 41 42 42 41 39 37 36 36 36 36 36 36 37 37 36 36 36 35 35 35 34 34 33 34 35 34 33 28 23 21 20 21 23 24 25 23 28 22 17 18 18 19
37 38 39 40 40 39 37 36 36 36 37 37 37 36 36 36 36 35 34 34 33 32 31 30 30 27 25 26 26 24 20 20 21 22 23 25 25 24 26 19 13 14 19
36 37 38 38 38 37 37 37 37 38 37 36 36 36 37 36 35 34 33 33 31 29 27 26 26 26 27 26 27 25 20 20 17 16 17 19 24 22 23 24 23 27 25
35 36 36 36 36 36 36 36 37 36 36 36 36 36 36 35 34 33 32 30 28 27 26 25 24 24 25 26 27 24 23 22 15 16 19 24 25 21 21 23 24 27 22
34 35 35 35 35 35 35 35 35 35 35 35 35 35 35 34 33 32 31 30 28 26 26 23 22 22 22 23 26 26 26 25 21 22 24 21 19 21 16 22 25 23 20
34 34 35 35 35 35 35 34 35 35 35 35 35 35 34 34 32 31 31 30 29 28 26 21 21 20 19 19 23 24 25 24 22 21 18 15 15 17 17 18 19 19 19
35 34 35 35 34 34 35 35 35 35 35 34 35 34 33 33 31 31 30 32 32 31 26 24 22 20 19 19 23 25 25 22 21 20 15 11 9 10 11 13 15 17 19

GFSMW_sfc_30mbdewp_096.txt.gz
Dewpoint
38 42 47 57 60 61 62 63 64 65 65 66 65 65 63 64 64 64 63 62 62 62 61 61 61 60 58 58 58 58 58 58 58 57 57 57 57 57 58 58 57 57 56
37 39 46 53 58 60 61 62 64 65 65 65 66 65 65 64 65 65 65 65 64 64 62 62 62 61 61 60 60 59 58 58 59 57 57 55 56 58 57 58 56 54 54
34 38 42 50 57 59 61 62 63 64 66 66 66 65 65 65 64 64 65 65 65 65 65 64 63 63 62 61 61 60 59 58 58 58 57 55 53 54 55 54 53 52 51
33 36 42 46 56 59 61 61 61 62 64 65 65 63 62 61 62 62 63 63 64 65 65 65 65 64 64 63 62 62 61 59 58 59 58 58 58 55 53 54 53 50 50
34 36 41 43 45 50 56 61 61 62 64 64 63 63 60 59 59 61 61 63 63 65 65 64 64 63 63 63 63 63 62 61 60 60 59 58 58 58 55 53 53 52 49
34 37 44 45 44 45 46 47 60 61 62 60 58 56 56 56 59 59 59 61 63 64 64 64 64 63 63 62 63 63 62 62 61 60 60 58 57 57 56 54 54 53 50
34 39 43 43 44 45 46 47 48 53 60 61 61 58 54 55 54 56 56 54 54 56 62 63 63 63 64 63 63 62 62 62 61 61 60 60 59 58 57 55 53 53 50
35 39 42 42 43 45 46 44 45 45 48 52 55 57 59 57 56 55 55 55 55 56 57 56 56 57 60 62 62 62 63 62 62 61 60 60 60 58 57 55 54 52 51
33 38 39 41 43 44 45 44 45 44 45 46 45 45 45 46 47 47 49 50 50 51 52 53 54 54 56 56 58 60 61 62 62 61 60 58 55 55 54 54 54 52 49
31 32 36 39 43 43 43 44 45 44 45 45 45 45 46 47 47 48 49 49 49 50 51 51 52 53 54 54 55 56 56 57 55 55 54 52 51 51 51 50 51 51 51
30 31 33 37 42 43 43 43 44 45 45 45 44 44 43 43 44 44 44 44 44 44 46 47 48 49 50 51 52 53 53 53 52 51 51 50 49 48 47 47 47 48 48
32 32 32 40 42 42 43 43 45 44 44 43 43 42 41 42 41 40 40 41 41 41 42 43 44 45 45 47 49 49 50 50 50 48 47 46 46 45 45 45 45 46 45
36 36 37 40 42 42 43 43 43 42 41 41 41 41 41 40 39 39 39 39 39 40 40 41 41 42 42 43 45 47 48 47 47 46 44 43 44 43 43 43 42 42 42
38 37 38 40 41 42 42 42 41 41 40 40 40 39 39 38 38 38 38 38 38 38 39 39 39 40 40 41 41 43 44 42 42 43 43 42 43 42 41 41 40 39 39
38 38 38 39 40 41 41 41 40 40 40 39 39 38 38 38 38 38 37 38 37 38 38 38 39 39 39 39 41 41 40 40 39 39 38 38 39 40 39 38 37 38 38
38 39 39 39 40 41 40 40 40 39 39 39 38 38 38 37 38 37 37 37 37 37 38 38 38 38 38 39 40 40 39 39 37 36 36 37 37 37 37 36 36 36 36
39 39 39 39 40 40 40 40 39 39 39 38 38 38 38 38 38 37 37 37 37 38 38 38 38 37 38 39 40 40 39 38 37 36 36 35 36 34 34 34 33 33 32
37 40 40 40 40 40 40 40 39 38 38 38 37 38 38 38 38 38 38 38 37 37 37 36 38 37 38 39 39 38 37 36 36 35 34 33 31 31 26 29 26 25 27
35 39 40 40 41 40 39 39 38 38 38 38 37 38 38 38 38 37 37 37 37 35 36 37 37 36 37 38 38 35 33 32 31 29 28 27 26 27 27 27 26 26 27
39 40 41 42 41 40 39 38 38 38 38 38 38 38 38 38 37 37 37 36 37 35 36 36 36 36 35 37 36 33 29 27 25 27 27 28 26 27 27 26 24 25 26
38 39 42 42 42 41 39 38 38 38 39 39 38 38 38 38 37 37 37 35 35 35 34 34 35 35 35 35 34 28 24 23 24 25 24 25 30 25 22 20 20 21 24
38 40 40 40 40 40 39 39 38 39 39 39 38 38 38 38 37 36 35 34 34 33 33 32 32 31 31 33 32 27 22 22 22 22 24 25 26 26 26 19 21 22 25
36 37 38 38 38 39 39 39 40 39 39 38 38 37 38 37 36 36 34 33 33 32 31 30 30 27 26 26 29 27 26 22 20 19 22 27 26 24 25 24 25 25 22
35 36 36 36 36 37 37 39 39 39 38 37 37 37 37 36 35 35 34 33 32 31 30 29 28 27 25 25 27 27 26 24 19 19 20 23 25 24 22 25 23 27 24
35 35 35 35 35 36 35 36 37 36 36 36 36 36 36 35 34 34 33 32 32 31 30 30 30 28 24 24 28 28 25 24 21 23 25 23 21 23 21 18 24 25 25
37 36 36 35 36 36 35 35 35 35 35 35 35 35 35 34 35 33 33 34 34 33 34 33 31 27 26 25 26 28 29 28 26 23 21 20 18 18 19 18 19 23 22

GFSMW_sfc_30mbdewp_099.txt.gz
Dewpoint
43 45 54 58 62 64 64 64 64 65 65 65 64 64 64 64 64 63 63 62 61 60 60 61 60 58 56 57 57 58 58 57 58 57 56 57 57 57 57 58 58 58 57
40 43 53 58 61 62 63 64 64 65 65 65 65 65 64 64 64 64 64 63 63 62 61 61 61 61 57 57 58 58 58 58 58 56 56 55 56 57 57 58 58 55 54
35 43 50 57 59 60 62 63 64 65 65 65 65 65 64 64 64 64 64 65 65 65 64 62 62 62 61 59 60 59 58 57 58 58 56 54 53 54 55 54 53 52 50
33 43 48 54 58 59 61 63 64 64 65 65 65 63 62 61 63 63 63 63 64 65 65 65 65 64 64 63 62 62 61 59 58 59 59 58 57 54 53 54 51 50 49
33 40 45 52 57 59 60 61 62 64 65 65 64 62 61 60 61 61 61 61 62 63 63 64 64 63 63 63 63 63 62 62 60 60 59 58 58 57 55 53 52 49 48
32 38 43 49 54 54 54 59 61 62 64 63 62 61 58 59 59 60 60 61 62 62 63 64 63 63 62 61 61 62 62 61 61 61 60 58 57 57 56 55 54 53 49
32 37 43 45 45 47 50 53 58 61 61 58 57 56 55 55 55 56 56 56 56 55 60 62 62 61 62 60 61 62 61 61 61 60 60 60 59 58 57 56 54 53 48
32 40 44 44 43 43 46 48 52 56 59 59 58 58 57 57 57 57 54 52 52 55 58 60 59 60 61 60 61 62 62 62 62 61 61 60 60 59 58 56 54 52 51
32 39 44 43 44 44 44 43 46 49 51 53 51 52 53 53 51 50 50 51 52 52 52 53 53 54 56 56 57 58 59 60 61 61 61 60 59 58 57 56 55 53 50
33 40 43 42 44 45 45 44 45 44 47 47 47 47 47 48 48 49 49 49 50 50 51 51 52 53 53 53 54 55 55 56 56 57 58 56 54 54 53 53 53 53 52
30 33 39 42 43 44 44 43 44 44 45 45 46 46 46 46 47 46 46 45 45 46 47 47 48 49 49 51 52 52 53 53 53 53 53 52 51 50 49 49 49 50 50
31 32 40 42 43 43 43 43 44 44 45 45 44 44 44 44 43 42 42 43 42 42 42 43 45 45 45 47 49 50 51 51 51 51 50 49 48 48 47 47 46 47 47
35 36 41 42 42 43 43 44 44 44 43 43 42 42 42 41 40 39 39 40 40 40 40 41 41 41 42 42 44 47 49 49 49 48 47 46 46 45 45 45 44 44 43
37 37 40 42 42 43 43 43 42 42 41 41 41 40 40 39 38 38 38 38 39 39 39 39 39 40 40 40 41 43 45 45 45 45 44 44 44 44 43 42 41 41 41
38 38 39 40 42 42 42 41 41 40 40 40 39 39 38 38 38 37 37 38 38 38 38 38 39 39 38 39 40 41 41 41 40 40 40 40 42 42 41 40 39 39 38
38 38 39 40 41 41 41 40 40 40 40 39 38 38 38 38 37 37 37 37 37 38 38 38 38 38 38 39 40 40 39 39 38 37 37 38 39 39 39 39 38 38 37
38 39 39 40 41 41 41 40 39 40 39 39 38 38 37 37 37 37 37 37 37 37 37 37 37 37 38 39 40 41 39 38 37 36 36 36 36 36 36 37 36 36 36
39 39 39 40 40 41 40 40 39 39 39 38 38 38 38 38 38 37 37 37 37 37 37 36 37 37 38 40 40 39 38 37 37 36 36 35 33 32 31 27 26 27 27
39 39 40 40 40 40 40 40 39 39 38 38 38 38 38 38 38 37 37 37 37 37 36 36 36 36 37 40 39 37 36 35 35 34 33 31 31 31 30 25 24 26 29
38 40 41 41 40 40 40 39 38 38 38 38 38 38 38 38 37 37 37 37 37 35 35 35 36 37 36 38 37 34 32 31 29 27 28 30 27 29 29 26 25 23 28
39 41 42 41 41 40 39 38 38 38 38 39 38 38 38 38 37 37 37 36 35 35 34 35 36 36 35 36 36 34 28 27 26 26 26 27 29 28 29 27 25 25 27
38 40 40 39 40 40 39 38 38 38 39 39 38 38 38 38 37 37 36 35 35 34 34 34 34 34 34 35 36 34 25 25 24 24 24 26 31 27 24 21 22 24 26
36 38 38 38 38 39 39 38 39 39 39 38 38 37 37 37 37 36 35 34 34 33 33 32 32 31 29 30 33 33 27 23 23 23 25 26 28 27 27 22 23 26 24
35 36 36 36 36 37 37 39 39 39 38 37 37 37 37 36 36 36 35 34 33 32 32 31 31 30 28 26 27 29 29 27 24 22 24 26 28 26 25 26 25 26 22
36 36 35 35 35 36 35 38 38 38 37 37 37 37 37 37 35 35 34 34 33 33 32 31 31 30 29 26 29 28 27 25 22 22 23 24 24 24 23 21 24 27 26
37 37 37 36 36 36 35 35 35 36 36 35 36 36 36 35 35 34 34 35 35 34 35 34 33 32 33 30 32 29 29 27 25 23 22 23 22 22 23 20 19 24 26

GFSMW_sfc_30mbdewp_102.txt.gz
Dewpoint
49 53 58 61 63 64 65 65 65 66 65 65 64 63 63 63 63 62 60 59 59 59 59 59 59 56 56 57 57 57 57 57 57 56 56 57 57 56 56 58 58 58 58
42 48 54 60 62 63 64 64 65 65 65 65 65 64 64 64 64 64 63 62 62 60 60 60 60 59 56 57 57 57 57 58 58 56 56 54 55 57 57 58 58 57 55
41 44 53 57 61 62 63 63 64 65 65 65 65 64 64 64 64 64 64 64 64 63 62 62 61 61 59 57 58 59 58 57 59 58 56 54 53 54 55 53 53 52 50
36 42 48 56 59 61 63 63 64 64 65 65 64 63 63 62 63 63 64 64 65 64 64 64 64 64 63 62 61 62 61 60 58 59 59 58 57 55 53 54 51 50 49
33 37 45 55 59 60 61 62 63 64 64 65 64 63 62 62 62 63 63 63 63 63 64 64 64 64 64 64 63 62 62 62 60 60 59 59 58 58 56 53 51 49 48
33 38 46 53 57 58 59 61 62 63 64 64 63 62 60 60 60 61 61 61 62 62 63 63 63 63 63 62 61 61 61 60 60 60 59 58 56 56 56 55 54 52 48
33 36 42 50 54 56 57 60 61 61 62 63 62 60 59 59 59 60 59 59 59 58 61 62 60 60 60 60 59 58 60 60 59 59 59 59 58 57 57 56 55 53 48
33 36 42 47 53 54 54 58 59 60 60 60 59 57 57 57 57 57 57 56 56 56 57 60 58 58 58 59 58 58 60 61 58 57 59 60 60 58 58 56 55 52 49
32 37 43 46 49 50 51 56 58 58 59 57 56 56 55 55 55 54 54 53 53 54 56 56 56 56 57 57 57 58 58 58 59 59 60 59 59 59 58 57 56 55 50
31 38 43 44 45 45 46 47 53 55 56 55 54 54 54 53 50 50 50 50 50 51 52 52 52 53 53 53 53 54 54 54 55 56 56 57 57 57 56 56 55 54 53
32 36 43 44 44 44 44 44 46 49 51 50 49 50 49 49 49 49 49 48 48 48 48 49 49 49 50 50 51 52 52 52 53 53 54 54 53 54 52 52 52 52 52
31 36 42 43 44 44 43 43 44 44 46 45 46 46 46 46 46 45 45 44 43 43 43 44 45 45 45 45 47 49 49 50 51 51 51 51 50 50 49 49 49 49 49
35 39 41 42 43 43 43 43 44 44 44 44 44 43 43 42 41 41 41 41 41 41 41 42 42 42 41 42 43 44 47 49 49 50 49 49 48 48 47 47 46 46 45
36 40 41 42 42 43 43 44 44 43 43 42 42 41 41 40 39 39 39 39 39 39 39 39 40 40 40 40 41 42 44 46 46 46 46 46 46 46 45 44 44 43 43
37 39 41 42 42 43 43 43 42 42 41 41 40 40 39 38 38 38 38 38 38 38 38 39 39 38 38 39 40 40 41 42 41 41 41 41 43 44 43 42 42 41 40
38 38 40 41 42 42 42 41 41 40 40 40 39 38 38 38 37 37 37 37 37 38 38 38 38 38 38 39 40 41 39 39 39 39 38 39 41 41 42 41 40 39 38
38 38 39 40 41 42 41 41 40 40 39 39 38 38 38 37 37 37 37 37 37 37 37 37 37 37 37 39 40 41 40 39 38 37 37 36 37 38 38 38 38 39 39
38 39 39 40 41 41 41 40 40 39 39 38 38 38 37 37 37 37 37 36 36 36 36 37 36 36 37 39 40 40 38 38 38 37 37 36 34 34 32 29 29 28 26
39 39 40 40 41 41 40 40 39 39 39 38 38 38 38 37 37 36 36 36 37 37 37 36 35 35 36 38 40 38 36 36 36 35 35 34 33 34 31 27 27 28 29
39 41 41 40 40 41 40 39 39 39 38 38 38 38 38 38 37 37 36 36 37 37 36 35 35 36 36 38 39 36 34 33 33 30 30 34 31 33 31 25 24 26 29
40 41 41 41 40 40 40 39 39 38 39 39 38 38 38 38 37 36 36 36 36 35 35 34 35 36 36 36 38 36 31 31 29 28 27 28 31 31 31 29 25 23 28
38 39 39 39 40 40 40 39 39 39 39 39 38 38 38 38 37 36 36 36 36 35 34 34 34 34 35 36 36 37 34 28 27 26 26 26 31 29 29 28 27 28 28
36 37 37 38 38 39 39 38 38 39 39 39 38 37 37 37 37 36 36 35 35 34 34 33 33 33 33 32 35 35 35 28 26 24 25 26 30 31 27 24 22 25 25
35 36 36 36 36 37 37 39 39 39 38 38 37 37 37 36 36 36 35 35 34 33 33 33 32 32 32 30 27 32 33 32 26 25 26 28 28 28 27 26 24 26 24
36 36 35 35 35 35 35 38 39 39 38 37 37 37 37 37 36 36 35 35 34 34 33 33 33 32 31 30 28 28 28 28 26 22 22 24 26 26 25 24 25 27 25
35 36 36 36 35 35 35 35 35 36 36 36 36 37 37 37 36 35 35 36 36 35 35 36 34 32 33 35 32 33 33 30 29 24 22 23 23 24 24 22 21 24 27

GFSMW_sfc_30mbdewp_105.txt.gz
Dewpoint
45 46 60 63 63 64 65 66 66 66 65 65 64 63 62 61 60 58 57 56 56 57 58 58 58 59 58 58 57 57 56 56 57 56 56 56 57 57 56 57 58 58 58
44 43 52 61 62 63 63 65 65 65 65 65 64 64 63 63 61 61 61 59 59 58 58 59 59 57 57 57 57 57 57 57 57 56 55 54 54 56 55 57 57 56 54
44 41 48 58 61 62 63 64 64 65 65 65 64 64 64 64 63 63 62 62 61 61 60 60 61 60 58 57 57 58 58 57 58 58 56 54 53 54 54 52 53 53 53
44 41 43 54 59 60 63 63 64 65 65 65 64 63 62 61 63 63 64 64 64 63 63 62 62 62 62 61 59 60 60 60 59 60 60 59 58 55 54 54 50 49 50
44 41 39 52 57 60 61 63 63 64 64 64 64 63 62 62 62 63 63 63 64 64 64 64 64 64 64 64 63 62 62 61 60 59 59 59 59 58 57 54 53 50 49
44 38 38 48 56 59 60 62 62 63 63 64 63 63 62 61 61 62 62 62 62 63 63 63 63 63 63 63 63 63 62 62 61 60 60 57 56 56 56 55 54 52 48
35 33 41 48 54 57 59 60 61 61 63 63 63 62 61 60 60 61 60 60 60 61 61 62 62 62 61 62 61 58 57 58 59 59 59 59 58 57 56 56 54 53 49
34 34 41 48 52 56 57 59 60 60 61 61 61 60 60 59 60 59 59 59 59 58 60 60 59 59 59 59 57 57 57 57 57 59 58 58 59 59 58 56 53 52 50
33 33 40 46 51 54 55 58 59 59 60 60 59 58 58 58 57 57 57 56 55 55 56 57 57 57 57 57 58 58 58 58 58 58 59 58 59 59 59 57 56 54 51
33 33 40 44 49 53 53 55 57 58 58 58 57 56 56 55 54 54 54 53 52 53 54 54 53 53 53 53 53 53 53 53 53 54 54 55 56 56 57 57 56 55 54
31 33 38 43 46 48 50 51 54 55 56 55 53 53 53 51 50 51 50 50 49 50 50 50 50 50 49 49 49 50 51 51 51 52 52 52 53 53 53 53 53 53 53
32 35 39 42 44 45 45 45 47 51 52 50 50 50 49 48 48 47 46 46 45 45 45 46 46 45 45 44 45 46 48 49 49 51 51 51 51 51 50 50 51 51 50
38 40 42 43 43 44 43 43 44 45 46 46 46 45 45 44 43 43 42 42 42 42 42 42 42 41 41 41 41 42 43 46 48 48 49 49 48 49 48 47 47 47 47
37 40 41 42 43 43 43 43 44 44 44 44 43 43 42 41 40 40 40 40 40 39 39 40 40 40 39 40 40 40 41 43 44 44 44 45 46 46 46 45 45 44 44
37 39 41 42 42 43 43 43 43 43 43 42 42 41 40 39 39 38 38 38 38 38 38 38 38 38 38 40 40 40 39 40 41 40 40 40 42 43 44 44 43 42 42
37 39 41 41 42 42 42 42 42 42 42 41 40 39 38 38 38 37 37 37 37 38 38 38 38 37 38 40 40 40 40 39 38 38 38 38 39 40 42 42 42 41 40
38 38 39 41 42 42 42 41 41 41 40 40 39 38 38 37 37 37 37 37 36 37 36 36 36 36 37 39 40 41 39 38 39 38 37 37 37 38 39 39 38 39 40
38 39 39 39 41 42 42 41 40 40 39 39 38 38 38 37 37 37 36 36 36 36 36 36 36 35 36 39 39 40 37 37 37 38 37 37 36 35 34 32 32 29 29
37 39 40 40 41 41 41 40 40 39 39 38 38 38 38 37 37 36 36 36 36 36 36 36 36 35 35 37 39 39 36 35 35 36 35 35 34 35 34 30 30 29 29
39 40 41 41 41 41 41 40 39 39 39 38 38 38 38 37 37 36 36 36 36 36 36 36 35 35 36 37 39 39 34 33 34 32 31 35 34 35 34 26 27 28 29
39 40 41 41 40 41 40 40 39 39 39 39 38 38 38 37 37 36 36 36 36 35 36 35 35 35 36 36 37 38 34 32 31 30 29 28 35 34 34 30 25 25 29
37 38 39 39 40 41 40 39 39 39 39 39 38 38 38 38 37 36 36 35 36 36 35 35 35 35 35 36 37 37 37 33 29 28 28 27 30 33 32 32 29 28 30
36 37 37 38 38 39 40 39 39 39 39 38 38 37 37 37 36 36 36 36 36 35 34 34 34 34 34 33 34 36 37 37 30 26 25 28 28 33 29 27 25 27 27
35 35 35 35 35 36 39 39 39 39 38 38 37 37 37 36 36 36 36 36 35 34 34 33 33 33 33 33 32 30 34 34 34 29 27 27 28 28 29 29 25 25 26
36 36 35 35 35 35 35 37 38 38 38 37 37 36 36 37 36 36 36 35 35 35 34 34 33 33 33 32 33 31 28 30 30 27 22 22 26 28 27 25 26 26 26
34 35 36 35 35 35 34 35 35 36 36 36 36 36 37 37 37 36 35 36 37 36 36 36 36 34 34 35 36 36 34 33 33 29 23 22 22 25 26 25 23 25 26

GFSMW_sfc_30mbdewp_108.txt.gz
Dewpoint
47 51 61 63 62 63 66 66 66 66 65 65 64 63 62 61 60 59 58 57 58 59 60 61 61 62 61 61 60 58 57 56 57 56 56 56 57 57 57 57 57 58 58
46 46 58 62 61 61 64 65 66 66 65 65 64 63 63 62 61 60 58 57 57 58 58 59 58 58 59 59 58 57 57 57 57 56 55 54 54 55 54 56 57 56 55
45 45 53 60 62 61 63 64 64 65 65 65 64 64 63 63 62 61 60 60 59 58 58 59 59 58 58 58 57 57 57 56 58 58 57 54 53 55 54 52 54 54 54
45 42 44 55 60 61 63 62 64 65 65 65 64 62 62 61 62 62 62 62 62 61 60 60 61 60 60 59 59 60 59 59 58 60 60 59 58 55 54 53 51 51 51
45 43 42 45 57 61 62 63 63 64 64 64 63 60 61 63 63 63 63 63 63 63 63 62 63 63 63 63 63 62 61 61 60 59 59 59 58 58 56 54 54 51 51
44 43 38 39 53 59 60 61 62 63 63 64 63 63 62 61 62 62 62 63 63 63 64 64 64 63 63 63 63 63 62 61 61 60 59 58 56 56 56 55 55 54 51
44 40 37 42 51 56 59 60 61 61 62 63 63 62 62 61 61 61 61 61 61 61 62 62 62 62 62 62 62 61 61 60 60 60 59 59 58 58 57 55 53 54 51
43 38 36 40 49 54 57 59 60 60 61 61 61 61 61 60 60 60 61 61 60 60 61 61 61 60 60 59 58 57 56 57 57 57 57 58 58 59 58 56 55 52 52
34 34 34 40 49 53 56 57 59 60 60 60 60 60 59 59 59 59 59 58 57 57 60 58 57 56 57 57 57 57 57 57 57 57 57 57 57 58 58 58 57 54 51
33 33 35 40 48 53 55 56 58 58 58 58 58 57 57 57 56 56 56 54 53 54 54 54 54 53 53 52 52 51 51 51 51 52 52 51 53 53 54 55 56 56 54
31 33 35 42 47 50 53 55 56 56 56 56 55 55 54 53 52 52 51 50 50 51 51 51 50 50 49 48 49 49 50 50 50 51 51 51 51 52 52 52 52 53 53
36 37 35 41 44 47 50 52 53 54 54 53 53 52 51 50 49 48 47 47 47 46 47 47 46 45 44 44 44 44 45 46 47 48 50 49 50 49 50 50 50 50 51
38 40 41 42 43 45 46 47 48 51 50 50 49 48 48 47 46 45 44 43 43 43 43 43 42 41 41 40 40 41 42 43 45 45 46 46 46 47 47 47 47 47 47
38 40 41 42 43 43 43 43 44 46 46 47 46 46 45 44 43 42 41 41 41 40 40 40 39 39 39 39 39 40 40 40 41 41 41 41 42 43 45 45 45 45 45
37 40 41 41 42 43 43 43 43 44 44 43 43 42 41 40 39 39 39 39 39 38 39 38 38 38 39 40 39 39 39 38 39 39 39 39 40 42 44 44 43 43 43
38 38 41 41 42 42 43 43 43 42 42 42 41 40 39 38 38 38 38 38 37 37 38 38 37 37 38 41 41 40 38 38 38 37 37 37 38 39 41 42 42 42 41
38 38 38 41 42 42 42 42 42 41 41 40 39 38 38 37 37 37 37 37 37 37 36 36 36 36 37 40 40 41 37 37 37 37 37 37 37 37 38 37 37 38 39
36 38 39 39 41 42 42 41 41 40 40 39 38 38 38 37 37 37 36 36 36 36 36 36 36 35 36 39 39 39 36 35 35 36 36 37 37 36 37 34 33 31 30
37 39 41 41 40 42 41 40 40 39 39 38 38 38 38 37 37 36 36 36 35 35 36 36 36 35 35 37 39 39 36 34 33 35 35 35 35 35 37 32 31 30 30
39 40 40 41 41 41 41 40 39 39 39 38 38 38 38 37 36 36 35 35 35 36 36 36 36 36 35 36 38 39 36 34 33 32 31 31 36 35 36 29 28 28 29
38 39 40 40 41 41 40 40 39 39 39 39 38 38 38 37 37 36 36 36 35 35 36 36 35 35 35 35 37 38 37 35 32 30 30 29 31 35 36 33 26 25 28
36 38 38 38 39 41 40 39 39 39 39 39 38 38 37 37 36 36 36 35 35 35 35 36 35 34 35 36 36 38 38 37 32 30 28 28 30 32 34 33 33 30 30
35 36 37 36 38 39 40 39 38 39 39 38 38 38 37 37 36 36 35 35 35 36 35 35 34 34 34 34 35 36 37 38 34 29 27 29 29 30 33 30 30 28 29
35 35 35 35 35 38 39 39 39 39 38 38 37 37 36 36 36 36 36 36 36 35 35 34 34 34 34 34 33 33 32 34 36 34 30 29 27 29 30 31 28 25 27
36 36 35 35 35 35 35 35 37 38 38 37 37 37 36 37 36 36 36 36 36 35 34 34 34 34 33 33 34 33 31 31 31 31 26 24 23 26 27 27 26 25 26
32 34 35 35 34 34 34 34 35 35 36 36 36 36 36 36 36 36 36 37 37 37 37 37 35 34 35 36 36 36 36 36 33 32 28 25 23 23 25 26 26 25 26

GFSMW_sfc_30mbdewp_111.txt.gz
Dewpoint
48 55 60 61 62 64 65 65 65 65 65 64 63 62 61 62 62 61 60 61 62 63 64 64 63 63 62 62 61 60 60 58 57 57 57 57 57 57 57 57 57 58 58
47 53 61 61 62 63 65 65 65 65 65 65 64 63 63 62 62 61 60 59 60 60 61 62 61 62 62 61 60 59 57 57 58 56 56 55 55 56 55 56 57 57 56
46 49 59 60 61 62 63 65 65 65 65 65 64 64 63 63 62 61 61 59 59 59 59 60 60 60 60 60 59 59 58 57 58 58 57 55 53 56 56 53 54 56 55
45 45 55 60 60 59 63 64 64 63 65 65 64 63 62 61 62 62 62 61 60 60 60 60 60 60 60 60 59 59 59 59 58 60 60 60 59 55 54 54 52 52 52
44 43 49 56 59 62 62 63 63 63 62 64 64 62 61 62 62 62 62 61 61 61 61 61 62 62 62 61 61 60 60 60 60 60 59 59 59 59 57 54 55 54 53
45 43 40 43 55 60 62 62 61 61 62 62 63 61 59 60 62 63 62 62 63 63 63 63 63 63 62 63 63 62 62 61 61 61 60 58 56 56 56 55 55 55 54
44 39 41 45 53 59 61 61 62 62 62 61 59 62 61 62 62 62 62 62 62 62 62 63 63 63 62 63 62 62 62 61 60 59 60 60 59 58 57 56 54 53 53
42 38 37 43 52 57 59 59 61 61 62 62 62 62 62 61 62 62 62 62 62 62 62 62 62 62 62 61 61 59 59 59 59 58 57 58 58 58 58 56 54 52 53
36 35 35 42 48 55 58 59 60 60 61 62 62 61 61 61 60 61 61 60 60 60 61 60 59 59 58 58 57 57 57 58 57 57 57 56 56 56 57 57 57 54 51
39 38 34 40 49 53 56 58 59 59 59 59 59 59 59 59 59 58 57 56 57 58 57 56 55 54 54 54 54 53 52 51 51 52 52 51 52 52 53 54 54 53 52
35 37 34 41 47 52 55 56 57 57 56 57 57 57 56 56 56 55 53 52 53 53 53 52 51 50 49 49 49 49 49 49 50 51 51 49 50 51 51 52 52 52 52
39 38 38 39 44 49 53 54 55 55 55 54 54 53 53 52 52 51 50 50 50 49 49 48 46 45 44 44 44 44 45 46 47 48 49 48 48 49 49 49 50 50 50
40 41 41 40 43 46 49 50 52 52 52 52 52 50 50 49 48 47 46 46 46 45 45 44 42 41 41 41 41 41 42 43 44 44 45 44 45 46 46 46 47 47 47
40 41 41 42 43 44 45 46 48 49 49 49 49 48 47 46 45 43 43 43 42 42 41 40 40 40 40 40 40 40 40 41 41 41 41 41 42 42 44 45 45 45 45
38 40 41 42 43 43 43 43 45 46 47 47 46 45 44 42 41 41 40 40 40 39 39 38 38 39 40 39 39 39 39 39 39 39 39 39 40 40 42 44 44 43 43
38 39 40 41 42 42 43 43 43 43 44 44 43 41 40 40 39 39 38 38 38 38 38 38 38 39 40 41 41 39 38 38 37 37 38 38 38 39 40 42 42 42 42
35 37 39 39 42 42 42 42 42 42 42 41 40 39 39 38 38 38 38 37 37 37 37 37 37 37 40 41 41 38 37 37 36 37 37 37 37 37 37 37 37 36 37
36 37 39 40 40 42 42 41 41 41 41 40 39 38 38 37 37 37 37 36 36 37 37 37 37 36 38 40 39 39 36 35 35 36 36 37 37 37 37 36 34 33 31
38 39 40 40 41 41 41 40 40 40 39 39 38 38 38 37 37 36 36 36 36 36 36 37 37 36 36 38 39 38 36 35 34 35 35 35 36 36 37 34 32 31 31
38 39 40 41 41 41 41 40 39 39 39 38 38 38 37 37 36 36 36 36 36 36 37 37 37 37 36 37 39 39 36 35 34 32 32 32 33 37 37 33 29 28 29
37 38 39 39 40 41 40 40 39 39 39 39 38 38 38 37 37 36 36 36 36 36 36 36 36 36 36 35 38 38 37 36 35 33 31 30 32 33 36 35 29 27 28
36 37 37 38 39 40 40 39 39 39 39 39 38 38 38 37 36 36 36 36 35 35 35 36 35 35 34 36 37 38 38 38 35 34 31 28 31 32 34 34 34 33 29
35 35 36 37 38 39 40 39 38 39 39 38 38 38 37 37 36 36 36 35 35 35 35 35 35 34 35 34 36 37 38 38 37 34 31 30 30 30 31 33 33 32 30
35 35 35 35 35 36 37 38 39 39 38 38 37 37 37 37 36 36 36 35 35 35 35 35 34 34 34 34 34 34 34 35 36 37 33 31 29 29 29 31 30 27 28
35 35 35 34 34 34 34 35 35 38 38 38 38 37 37 37 36 36 36 36 36 36 36 35 35 34 34 34 34 34 33 32 32 33 29 28 26 25 26 28 28 26 25
32 34 34 34 34 33 33 33 34 34 35 36 37 37 37 37 37 36 36 37 37 37 37 36 35 35 35 35 36 36 37 37 36 32 29 28 27 25 24 25 26 26 26

GFSMW_sfc_30mbdewp_114.txt.gz
Dewpoint
41 44 51 54 60 60 63 64 65 65 65 64 63 63 62 62 62 63 62 61 61 61 61 61 61 62 61 61 61 61 61 60 59 57 55 56 57 58 58 58 57 57 57
41 43 49 59 57 62 62 64 64 65 64 64 64 63 63 62 61 61 62 62 62 63 62 62 62 62 62 62 61 61 60 60 58 55 56 53 55 56 56 57 58 58 58
41 44 47 59 59 60 61 63 64 65 65 64 64 64 63 62 61 62 61 61 61 62 62 62 62 62 62 62 61 61 60 58 59 58 57 54 52 56 58 55 55 56 57
43 45 47 58 59 61 63 63 65 65 65 65 64 63 62 61 60 62 62 61 59 60 61 61 61 61 62 61 61 61 61 59 58 60 60 60 59 55 52 56 54 54 54
45 45 47 58 60 61 60 63 64 64 65 65 64 63 62 62 63 63 62 62 61 61 61 61 61 61 61 61 61 60 59 60 59 59 60 60 59 59 57 54 55 55 56
46 46 52 59 59 60 60 61 62 62 63 63 63 62 62 62 62 63 62 62 62 62 62 62 62 62 62 62 61 61 60 60 61 60 60 59 57 57 57 55 55 55 55
47 42 47 57 60 59 59 59 60 60 61 61 61 61 61 61 61 62 61 62 62 62 63 63 63 63 63 63 61 61 62 62 61 61 60 59 58 57 56 55 54 54 54
44 40 46 54 59 60 60 60 60 59 60 60 61 61 61 61 61 61 61 61 61 62 63 63 63 63 63 62 62 62 61 62 61 60 60 58 57 58 57 55 54 52 50
44 39 44 51 58 59 60 60 60 60 60 60 60 59 60 58 61 61 62 62 62 62 63 63 62 63 62 61 61 60 59 59 58 57 57 57 57 56 57 57 56 53 48
38 36 43 48 53 58 59 60 61 60 60 60 60 59 59 58 59 59 61 61 60 61 62 61 61 59 59 58 58 57 57 57 56 55 54 52 52 52 53 53 52 52 52
42 38 38 47 53 56 58 58 58 59 59 60 60 59 59 58 59 59 59 59 59 59 58 57 56 55 54 54 54 53 52 51 51 52 51 50 49 50 50 51 51 51 51
43 41 40 43 50 54 56 56 57 57 58 58 58 58 58 58 58 56 56 56 56 55 54 53 52 50 50 50 50 48 48 48 48 48 48 47 47 48 49 49 49 50 50
42 42 41 42 45 50 52 54 55 55 56 56 55 55 55 55 53 52 52 52 52 51 50 49 47 46 45 44 44 44 44 45 45 46 46 46 46 46 47 46 47 47 47
41 42 42 42 43 46 48 51 51 53 53 54 53 52 52 52 52 50 49 49 48 47 46 45 43 42 41 41 41 41 42 42 42 43 43 43 43 44 44 45 45 44 45
38 40 41 42 43 43 44 47 49 50 51 51 51 50 49 48 48 47 46 45 44 43 42 41 40 40 40 40 40 41 41 41 41 41 40 41 41 40 42 42 43 42 42
36 39 39 42 42 43 43 44 46 47 48 48 47 46 44 44 44 43 42 42 41 40 40 39 40 40 40 41 40 40 39 39 39 39 39 39 39 40 40 42 42 42 41
36 37 39 40 42 43 43 43 43 44 44 44 43 43 42 41 41 40 40 40 39 39 39 39 40 40 41 42 40 39 39 39 38 38 39 38 38 38 38 38 37 37 37
37 38 39 40 41 42 42 42 43 42 42 41 41 40 40 40 39 39 39 39 39 39 39 39 39 41 41 41 40 39 38 37 36 37 37 37 37 37 38 38 37 36 34
38 39 40 41 41 42 42 42 42 42 41 40 40 40 39 39 38 39 39 39 39 39 39 39 38 39 39 40 40 39 37 36 36 35 36 36 36 37 37 37 35 34 33
39 39 40 41 41 42 41 41 41 41 41 40 40 39 39 39 38 39 39 39 39 39 39 39 39 38 38 39 40 39 37 36 35 34 34 33 34 36 37 37 34 32 31
38 39 40 40 41 42 41 41 40 40 40 40 40 39 39 39 39 39 38 38 39 38 38 38 38 37 37 37 39 40 38 36 35 35 34 32 33 33 36 37 34 32 28
36 38 39 39 40 41 41 41 40 41 40 40 39 39 39 38 38 38 38 38 38 38 37 37 37 36 36 37 37 39 39 38 36 36 35 32 31 33 33 35 35 34 30
36 36 37 37 37 38 39 39 39 40 40 39 39 39 38 38 37 37 37 36 37 36 36 36 36 36 36 36 38 38 38 38 38 37 36 32 31 31 31 33 33 34 31
36 36 36 35 35 35 35 36 38 39 39 38 38 38 38 37 37 37 37 37 36 36 37 36 36 36 35 36 36 36 37 37 37 37 36 34 32 30 28 28 32 30 28
35 35 35 34 34 34 34 34 35 38 39 39 39 38 38 38 37 36 37 37 37 37 37 37 37 36 35 35 36 35 34 34 34 34 32 30 29 28 27 27 27 28 27
33 34 34 34 33 33 33 34 34 35 35 35 36 37 37 38 38 37 37 38 38 38 38 38 37 36 37 35 36 36 36 37 36 33 31 30 29 28 28 26 25 25 26

GFSMW_sfc_30mbdewp_117.txt.gz
Dewpoint
39 41 45 55 58 59 59 63 64 63 63 63 64 63 59 55 54 55 54 56 54 55 54 54 55 57 58 58 59 59 59 60 60 57 56 56 56 57 57 57 57 56 57
39 40 45 53 56 59 57 60 63 64 63 63 63 63 63 62 61 60 56 54 54 56 56 58 58 59 60 60 60 60 60 60 60 56 55 54 56 56 57 57 58 58 58
39 39 44 51 56 55 58 58 61 63 64 63 64 63 62 62 62 62 62 61 61 61 61 61 60 61 61 61 61 61 61 59 59 58 57 53 53 56 57 57 56 57 58
39 40 44 49 57 56 56 61 60 63 64 64 63 62 61 60 61 61 62 62 61 63 63 63 63 62 63 62 62 62 62 62 60 60 60 60 58 55 53 56 55 55 55
40 42 44 49 58 58 58 61 61 63 64 63 63 63 62 61 61 62 61 61 61 62 63 62 62 62 63 63 62 62 61 61 60 59 60 59 59 58 56 53 55 56 57
45 45 46 49 58 59 60 61 61 61 63 63 62 63 62 62 61 62 61 61 61 61 62 62 62 62 62 62 62 62 62 61 61 60 60 59 58 57 56 55 55 55 55
45 45 46 55 59 59 59 58 60 61 61 63 63 62 62 63 62 62 62 62 61 61 62 62 62 62 63 62 61 62 61 61 61 60 60 60 59 58 55 54 54 54 54
42 40 48 57 59 59 59 58 58 58 60 59 60 61 61 61 61 61 62 62 62 62 62 62 63 62 62 62 63 62 61 62 62 61 60 59 58 58 57 56 54 53 53
42 43 47 57 58 58 58 58 59 59 59 59 59 61 60 61 60 61 62 60 62 62 63 63 62 62 62 62 62 62 61 61 61 60 58 57 57 57 57 56 56 54 49
42 43 50 57 58 58 58 59 59 59 59 60 59 60 60 60 61 61 60 61 61 62 62 62 62 62 62 62 62 60 59 58 58 57 57 56 54 53 53 53 52 52 51
44 43 51 57 58 59 59 60 60 60 60 60 60 60 59 59 60 59 60 60 60 61 61 61 61 61 60 60 58 57 56 56 54 53 52 51 50 50 51 51 51 50 50
43 44 49 55 56 57 57 58 59 59 60 60 59 59 58 58 58 58 59 60 60 60 60 59 58 57 57 56 55 53 52 51 50 50 49 48 48 48 49 50 49 49 49
43 42 44 48 51 54 54 55 57 57 58 59 58 58 58 58 57 57 57 58 58 57 57 56 54 53 52 51 50 49 48 47 47 47 47 47 46 47 48 48 47 46 46
43 43 42 43 46 49 52 52 54 56 56 56 56 56 56 55 55 55 55 55 54 54 52 50 48 47 46 45 44 44 44 44 44 45 45 44 44 44 45 45 45 44 44
40 43 44 43 43 45 49 50 51 52 54 54 54 53 53 53 51 51 51 51 51 49 46 44 43 42 42 41 42 42 43 42 42 43 42 43 41 40 42 42 43 42 42
37 39 41 44 43 43 44 47 49 50 51 51 50 49 49 49 48 47 46 45 44 43 42 42 41 41 39 41 42 42 41 41 41 40 40 40 39 40 40 42 41 42 41
37 38 39 41 42 43 43 43 45 47 47 47 46 46 46 46 45 45 44 44 42 42 41 41 41 41 41 41 41 41 41 40 40 40 40 39 38 38 39 39 38 38 37
38 39 39 41 41 42 42 43 43 43 44 44 45 45 44 44 43 42 42 41 41 41 41 41 42 42 42 41 40 40 40 39 38 38 38 38 38 38 38 38 38 38 37
39 40 40 41 42 42 42 42 42 43 42 41 41 41 41 41 40 41 41 41 41 41 40 40 41 42 42 42 40 39 39 38 37 36 37 37 37 37 37 38 36 36 35
39 40 41 41 42 42 42 41 41 41 41 41 40 41 41 41 41 41 41 41 41 40 40 40 40 40 40 41 41 40 38 37 36 35 35 35 35 37 38 37 36 34 33
38 40 41 41 42 42 42 41 41 41 41 41 40 40 40 40 40 40 40 40 40 39 40 39 39 38 38 39 40 40 38 37 36 35 34 34 35 34 35 37 37 34 31
36 39 39 39 39 41 41 41 40 41 41 40 40 40 40 39 40 40 39 40 39 39 38 38 37 38 38 38 40 40 40 38 37 36 36 34 32 33 34 35 35 36 34
36 36 37 37 36 37 38 38 39 40 40 40 40 40 39 39 39 38 38 38 38 38 37 37 37 37 36 36 38 39 40 39 38 38 37 35 32 32 32 33 34 34 35
36 36 36 35 35 35 35 35 37 40 39 38 38 38 38 38 37 38 38 37 37 37 37 37 37 37 37 36 37 38 39 39 39 38 38 37 34 33 30 29 30 33 32
35 35 34 34 34 34 34 35 35 36 38 39 39 39 39 39 38 37 38 37 38 38 37 38 38 37 36 36 37 36 36 37 37 37 35 34 32 30 29 29 28 29 30
34 34 34 34 33 33 33 33 34 34 35 35 35 36 37 38 38 38 38 39 40 40 40 39 39 38 38 38 38 37 37 36 36 34 32 32 31 30 29 28 27 27 27

GFSMW_sfc_30mbdewp_120.txt.gz
Dewpoint
26 38 43 49 55 58 59 57 60 61 61 60 57 54 54 56 56 57 59 59 58 58 56 55 54 55 57 58 59 59 59 60 60 58 57 57 57 57 57 58 58 58 59
30 40 42 50 56 58 59 58 58 62 62 61 59 55 55 55 57 58 58 58 57 57 55 55 55 58 58 59 59 60 60 60 60 57 56 55 56 57 57 58 58 58 59
38 40 41 49 56 58 58 58 58 62 63 62 60 59 57 55 56 55 57 56 56 56 56 58 58 59 60 59 60 61 61 59 60 58 58 53 54 56 57 57 57 57 57
39 39 40 48 56 57 58 58 59 61 64 63 61 61 59 57 57 56 56 56 57 58 60 61 60 61 62 61 62 62 62 62 59 59 59 59 59 55 54 55 54 55 55
39 39 41 46 57 56 57 59 58 59 60 61 62 61 60 60 61 61 61 60 61 62 63 62 63 63 63 63 62 61 61 60 60 59 60 59 58 58 56 53 55 56 56
42 41 44 46 57 57 57 59 59 57 59 62 63 61 61 61 61 61 61 61 62 63 63 63 63 63 63 62 62 61 61 60 60 60 60 59 57 57 56 54 53 54 55
45 45 45 47 57 57 57 59 58 59 60 59 63 61 62 61 61 61 61 60 61 61 61 62 62 62 62 62 61 60 61 60 60 60 60 60 59 59 56 54 52 53 54
41 42 45 48 57 57 58 58 56 56 56 61 61 62 62 61 61 62 61 60 61 61 62 62 62 62 62 61 61 61 61 61 61 61 61 60 58 58 57 55 54 52 50
43 45 46 54 57 57 57 55 56 56 58 59 60 60 61 61 61 62 61 61 61 61 61 62 62 61 62 61 61 60 61 61 61 60 60 58 57 57 57 56 56 54 49
44 48 51 57 57 57 56 55 56 56 58 58 59 60 60 60 60 60 60 61 62 62 62 62 61 61 61 61 62 61 61 60 59 58 57 56 55 54 54 53 52 51 51
44 47 54 57 57 58 58 58 58 58 58 59 59 59 59 60 60 60 60 60 61 61 61 61 62 61 61 61 61 60 59 58 57 56 55 53 52 51 51 51 50 50 50
45 48 55 56 57 57 58 59 59 59 59 59 59 59 59 59 59 59 60 60 60 61 60 60 60 60 60 60 59 58 58 56 54 53 51 50 49 48 49 50 49 48 48
45 46 47 50 52 53 54 56 57 58 59 59 59 58 58 58 58 59 59 60 60 60 60 59 58 58 58 58 58 56 54 52 51 50 49 48 47 47 48 47 46 46 46
44 45 45 46 49 51 51 52 54 56 57 58 57 57 57 57 56 57 58 58 58 57 57 57 56 55 55 54 51 50 48 47 46 46 46 45 45 45 46 46 45 44 44
41 43 44 45 46 48 50 51 52 54 55 54 55 55 54 54 54 54 54 54 53 53 51 50 50 49 48 45 45 45 44 44 44 43 43 43 41 42 42 42 43 42 41
39 41 42 43 43 45 47 49 50 51 50 50 50 51 50 50 50 50 50 50 49 48 46 45 44 42 41 43 43 43 43 42 42 40 40 39 39 40 41 42 42 41 40
38 39 41 42 43 43 44 45 46 47 47 47 47 47 47 47 46 46 46 46 45 46 45 44 42 41 42 43 43 42 42 41 41 40 39 39 39 39 40 40 39 39 38
39 40 41 42 42 42 43 43 43 45 45 46 46 46 45 44 44 44 44 44 44 44 43 43 42 41 42 42 42 41 41 40 39 39 39 39 38 39 38 38 38 38 38
40 41 42 42 42 42 42 42 42 42 42 42 42 43 44 43 42 42 41 42 41 41 41 42 42 41 41 41 41 40 39 38 37 38 38 38 37 38 38 37 36 36 36
40 41 42 42 42 42 42 42 41 41 41 41 41 42 42 42 42 42 41 42 41 41 40 40 41 42 41 41 40 39 38 37 36 36 36 37 36 39 38 36 36 35 33
40 40 40 39 40 42 42 41 41 40 41 41 41 40 41 42 42 42 41 41 40 40 39 39 39 40 41 41 41 40 38 37 36 35 34 35 36 36 36 38 36 35 33
38 38 37 37 38 39 40 39 39 40 41 41 41 40 40 40 40 39 39 40 39 39 39 38 38 38 38 40 42 41 41 38 36 36 35 34 35 34 35 35 36 37 35
36 37 36 35 35 36 37 38 38 40 39 39 39 39 39 39 39 39 38 38 39 38 38 37 37 37 37 38 40 41 41 41 38 37 36 35 34 33 33 34 35 34 34
35 36 35 35 34 35 35 35 36 39 40 39 38 38 39 38 37 38 38 37 37 37 37 37 37 37 37 36 38 39 40 40 39 39 38 38 36 34 33 31 32 33 33
35 34 34 33 33 34 34 34 34 35 37 37 38 38 39 39 38 38 38 38 38 39 38 38 38 37 37 37 37 38 38 39 39 38 37 36 35 33 31 30 29 29 31
34 35 34 33 33 33 33 33 33 34 34 35 35 35 35 37 38 38 38 40 40 40 41 41 40 39 40 40 39 39 38 38 39 36 34 34 33 32 31 30 29 28 28

GFSMW_sfc_30mbdewp_123.txt.gz
Dewpoint
31 29 29 42 49 52 55 56 56 55 58 60 60 62 63 60 60 59 59 60 61 61 60 59 58 55 54 54 54 55 57 59 59 58 57 56 57 57 57 58 58 58 59
32 28 30 45 49 52 54 56 56 58 60 61 60 62 62 58 59 59 58 59 59 59 58 57 55 55 55 56 57 58 59 60 59 57 56 55 56 57 57 58 57 58 58
29 27 30 45 48 51 56 57 57 58 57 62 59 59 59 58 57 59 58 59 59 57 56 55 56 56 57 58 59 60 60 59 60 58 56 54 53 56 57 57 56 56 57
37 40 39 44 48 49 53 58 58 57 57 63 58 57 56 55 56 58 58 58 58 56 57 57 57 58 59 60 60 61 61 60 58 59 60 59 57 52 55 55 54 55 55
38 39 40 42 48 50 54 58 58 57 61 61 60 56 56 55 56 57 57 57 57 57 58 57 58 60 61 61 62 61 61 60 59 58 59 59 58 57 55 52 54 55 55
40 39 40 45 48 51 56 58 58 57 56 56 61 57 56 56 56 56 56 57 57 57 60 60 60 62 62 62 62 61 61 60 60 60 59 58 56 56 56 55 53 53 55
43 42 42 44 48 52 57 58 58 58 59 57 61 60 58 58 56 57 56 58 57 58 62 62 62 62 62 62 61 61 60 60 59 60 60 60 59 58 57 55 52 51 54
42 43 45 45 48 54 57 57 58 58 59 58 58 57 60 58 59 59 58 60 59 60 62 62 62 62 62 61 61 60 60 60 60 60 60 60 59 58 57 55 53 51 51
44 43 44 46 50 56 56 56 56 56 57 59 59 58 61 60 60 60 60 60 61 61 62 62 62 62 61 61 60 60 60 60 60 60 60 58 57 57 57 56 55 53 48
45 47 48 47 52 57 56 55 56 57 59 60 60 59 59 60 60 61 60 60 61 61 61 61 61 61 61 60 60 59 60 60 60 59 58 56 56 55 55 54 53 52 51
45 48 50 52 56 56 55 55 56 57 58 58 59 59 59 60 60 60 61 61 61 61 61 61 60 60 60 60 60 60 60 59 58 57 57 55 53 52 52 52 51 50 49
49 52 51 56 56 55 56 57 57 57 58 58 59 59 59 59 59 59 60 61 60 61 61 60 60 60 60 60 60 59 59 58 57 56 55 53 51 50 50 50 49 49 49
46 48 52 52 53 54 56 57 57 58 58 58 57 58 58 58 58 58 59 59 60 60 60 60 60 59 59 59 59 58 57 56 55 54 53 50 48 48 48 48 47 47 46
44 45 46 49 50 51 53 54 55 56 58 58 57 57 57 57 58 58 59 59 59 59 59 59 59 59 59 59 58 57 56 55 53 52 50 48 47 47 47 46 45 45 44
42 43 44 46 48 49 50 51 51 53 54 54 54 54 55 56 56 56 56 57 58 57 58 57 57 57 57 56 55 54 52 50 47 46 45 44 44 45 45 44 44 43 42
42 43 43 44 45 46 47 48 48 49 51 50 50 51 52 52 52 52 52 51 50 50 51 51 51 50 48 50 50 49 47 46 44 43 42 41 41 42 43 43 42 42 41
41 42 43 44 44 44 46 46 46 46 47 47 47 48 48 48 48 48 49 49 49 48 47 46 45 46 46 48 48 47 45 43 42 41 40 39 39 40 41 41 40 40 40
40 41 41 41 42 43 42 42 43 44 46 46 46 46 45 45 45 45 45 45 46 46 46 46 45 44 45 45 44 43 42 41 41 40 40 39 39 39 39 39 38 38 38
41 41 42 42 42 42 42 41 41 41 41 41 42 44 44 43 43 43 43 42 42 43 43 44 43 42 42 43 43 41 40 40 39 39 39 38 38 40 39 38 36 36 36
39 39 40 40 41 41 41 41 40 41 40 41 41 42 43 43 43 42 42 41 41 41 41 42 43 42 41 42 42 40 38 37 37 37 38 38 37 40 39 36 36 35 33
38 38 38 38 39 40 40 39 40 40 41 41 41 40 42 42 42 41 42 40 40 40 39 40 40 41 41 41 41 40 38 37 36 35 36 36 39 40 39 37 36 35 33
37 36 36 36 37 38 39 39 39 40 41 40 40 39 40 40 39 39 40 40 39 39 39 39 39 39 40 41 42 41 40 38 36 35 35 35 38 37 36 37 38 38 36
35 35 35 35 35 35 36 37 39 39 39 38 38 38 38 39 39 38 38 38 38 38 37 37 37 37 38 38 41 42 42 41 37 36 36 35 37 35 35 35 35 36 36
35 34 34 33 33 34 34 34 35 38 38 38 38 39 39 38 38 38 38 37 37 37 37 37 37 37 37 37 37 40 41 42 41 38 37 36 35 35 33 33 33 34 33
34 34 33 33 33 34 34 33 34 34 35 35 35 35 36 37 38 38 39 39 39 40 38 38 38 37 37 38 38 37 38 40 40 39 37 37 36 34 33 32 30 29 30
34 33 33 33 33 34 34 34 33 33 34 34 33 34 34 34 34 35 35 37 38 39 40 41 40 40 41 41 41 41 40 40 40 38 35 35 35 34 33 32 31 30 30

GFSMW_sfc_30mbdewp_126.txt.gz
Dewpoint
26 27 30 32 36 40 49 55 54 53 55 59 60 60 58 59 61 65 61 61 63 61 60 59 60 60 57 56 53 54 56 58 59 57 56 56 57 57 57 58 58 58 59
23 29 32 33 37 40 47 53 54 54 54 56 59 60 60 59 64 64 63 61 63 61 59 58 59 58 56 54 53 55 58 59 59 57 56 54 56 57 57 58 58 58 58
25 29 31 33 37 46 51 52 54 55 55 56 58 60 61 61 60 62 62 62 62 61 59 58 58 57 55 54 55 56 58 58 59 58 55 54 53 55 56 56 56 56 56
29 30 32 32 38 45 52 53 55 56 56 60 60 59 59 59 60 60 62 62 62 61 60 59 57 56 56 56 57 58 59 60 58 59 59 57 56 53 54 55 54 55 55
34 37 39 34 40 47 52 54 54 54 56 59 60 59 58 59 60 60 60 61 60 59 58 57 57 57 58 58 59 60 60 60 59 58 58 58 57 56 53 52 54 54 55
36 37 38 41 45 49 50 51 52 54 56 57 60 59 59 59 60 60 59 59 59 58 57 57 57 58 59 60 60 61 61 60 59 59 58 57 56 55 55 53 53 52 54
42 40 39 41 44 47 49 51 50 54 56 56 58 59 59 59 59 59 58 58 58 58 58 57 58 60 60 61 61 61 61 60 59 59 58 58 57 57 56 54 52 51 53
43 44 43 43 46 48 49 50 53 56 56 56 57 58 59 59 59 59 58 58 57 58 59 58 59 61 61 61 61 61 60 60 60 59 60 59 59 58 57 55 52 51 51
44 44 45 46 46 48 48 52 54 56 57 57 56 57 58 59 59 59 58 58 58 58 61 60 60 62 61 61 61 60 60 60 60 59 60 59 59 58 57 56 53 51 48
44 45 45 44 46 49 52 56 57 57 58 57 56 55 55 58 60 59 57 59 59 60 61 61 61 61 61 61 60 60 60 59 60 60 59 58 57 57 56 56 54 53 50
44 45 47 48 48 53 55 56 57 57 57 57 57 56 57 59 59 59 59 60 60 61 60 61 61 61 61 60 60 59 59 59 59 59 58 57 55 54 54 53 52 51 51
47 46 48 49 51 54 55 56 57 57 58 59 59 58 59 60 59 59 60 61 61 61 61 61 61 60 60 60 59 58 59 59 58 57 56 54 53 52 52 51 50 49 49
49 51 49 51 54 55 55 56 57 57 58 58 57 57 57 58 59 59 60 60 60 60 60 60 60 60 60 59 59 59 58 58 57 56 55 53 51 49 49 49 48 48 47
44 46 49 50 51 51 52 53 57 57 57 56 57 57 57 57 58 58 58 59 60 59 59 60 60 60 60 59 59 58 58 57 56 55 54 52 50 49 49 48 47 46 46
42 43 45 47 48 49 49 50 51 53 56 54 54 55 56 56 56 57 58 58 58 59 59 58 58 58 58 58 57 57 56 55 54 53 52 50 49 49 48 47 46 45 44
41 42 43 44 45 47 47 48 48 49 50 50 50 51 52 52 52 53 53 54 55 55 56 57 56 57 57 57 57 56 55 53 52 49 47 46 47 47 47 46 45 44 43
40 41 42 43 43 44 45 46 47 47 47 47 47 48 48 48 48 49 49 49 49 49 49 49 50 50 50 50 53 53 51 50 48 46 44 43 43 43 43 44 43 43 42
39 40 41 41 41 41 41 42 43 44 45 45 45 45 45 46 45 45 45 45 46 46 46 46 46 47 47 48 48 47 46 45 44 44 43 41 40 41 41 40 39 39 39
39 39 40 41 40 40 41 40 40 41 42 42 43 43 43 43 43 43 43 43 43 43 44 44 44 44 44 45 44 44 43 43 42 41 40 39 39 40 41 38 37 37 37
38 38 38 39 39 39 40 40 40 40 40 40 41 43 43 43 42 42 41 41 41 41 42 43 43 43 43 44 44 43 41 40 39 39 39 39 38 41 40 37 36 35 35
37 37 37 38 38 39 39 39 39 40 40 40 40 40 40 41 41 41 41 40 40 39 39 39 40 41 42 42 43 42 41 40 39 38 38 40 41 41 40 37 36 35 34
35 35 35 35 36 37 39 38 38 39 39 39 39 38 39 39 38 38 38 38 39 39 39 39 39 40 41 42 41 41 41 38 36 36 36 36 40 41 40 38 37 37 34
34 34 34 33 34 34 35 36 38 39 39 38 38 38 37 38 38 37 37 37 37 37 37 37 37 37 38 38 41 43 43 43 40 38 38 37 39 39 38 38 38 38 34
33 33 33 33 33 33 33 33 34 36 35 35 35 36 38 38 38 38 38 37 37 37 37 36 36 36 37 37 38 39 41 43 42 38 38 37 38 37 35 36 36 35 35
34 33 33 33 34 34 33 33 34 34 34 33 34 34 34 34 35 36 38 39 39 39 39 39 39 38 38 38 41 39 38 39 41 40 37 36 35 34 34 32 32 32 33
34 33 33 33 33 33 33 32 33 33 33 33 33 34 33 32 33 33 33 34 36 36 37 39 40 40 40 41 41 40 41 41 41 39 36 36 35 35 34 33 32 31 31

GFSMW_sfc_30mbdewp_129.txt.gz
Dewpoint
20 20 22 28 31 34 35 42 50 53 53 58 58 59 60 61 62 65 62 64 64 63 62 61 61 60 59 58 57 55 55 56 58 57 56 57 57 56 56 57 57 57 58
23 21 22 28 35 33 36 39 48 51 53 55 58 58 59 60 61 64 64 62 64 63 62 61 60 59 59 58 56 55 56 57 58 56 55 54 55 56 57 58 58 58 58
27 26 24 27 33 38 37 39 45 50 53 53 57 59 59 59 59 61 64 61 63 63 62 61 60 59 58 57 55 55 56 56 58 57 55 53 52 55 56 56 56 56 56
35 29 27 27 32 38 40 41 44 50 52 54 54 56 56 56 58 60 61 62 62 64 62 60 59 58 58 57 55 56 56 57 58 58 58 57 56 54 54 55 54 54 55
38 33 30 30 33 36 40 46 47 50 52 53 54 55 55 56 58 59 62 61 62 64 63 62 60 58 58 57 56 57 58 58 58 58 58 57 56 55 53 53 54 55 54
38 41 34 34 38 39 43 48 51 52 53 54 56 56 56 56 59 60 60 61 61 62 62 62 61 59 57 57 57 58 59 59 59 59 58 57 55 55 53 52 53 53 54
40 43 40 38 40 43 47 50 51 51 53 54 55 56 57 58 58 59 59 60 61 61 62 61 61 59 58 58 58 59 59 60 59 59 58 58 56 56 55 53 52 51 52
42 43 44 43 41 44 47 49 50 49 52 53 54 54 57 58 59 60 59 59 60 60 61 61 60 59 58 59 59 59 60 60 60 59 59 58 58 57 56 54 52 50 51
39 43 44 44 44 45 46 49 50 50 53 53 54 55 57 59 59 60 60 60 59 60 60 60 59 59 59 60 60 59 59 60 60 59 59 59 59 58 57 55 53 51 49
40 43 44 45 46 47 49 49 50 50 53 55 56 56 57 58 57 60 60 60 60 60 60 59 59 60 60 60 60 60 60 60 60 59 59 59 58 58 57 56 54 52 50
44 43 44 46 47 48 49 47 50 51 53 54 56 56 57 56 56 57 60 60 60 60 60 60 59 60 60 60 60 60 59 59 59 59 59 58 57 57 56 55 54 53 51
47 45 46 48 48 49 50 51 52 53 53 57 56 55 55 56 57 59 59 60 59 60 60 60 60 59 60 60 60 59 59 59 58 58 58 57 56 56 55 54 53 52 50
48 49 49 50 49 49 48 54 56 57 57 58 57 57 57 57 59 59 59 60 60 60 60 60 59 59 60 60 60 59 59 59 58 58 58 57 55 54 53 52 51 50 49
43 45 47 49 50 50 53 55 56 56 56 56 56 56 57 58 59 59 59 60 60 60 60 60 59 60 60 59 59 58 58 58 58 58 57 56 54 53 52 51 49 48 47
41 42 43 45 46 48 49 50 51 52 53 53 52 53 54 54 56 57 57 58 59 59 59 58 58 59 59 59 58 58 58 57 57 57 56 55 54 52 51 50 48 47 46
39 40 41 42 43 45 47 48 48 49 49 49 49 50 50 50 50 51 51 52 53 54 57 57 57 57 57 57 57 57 57 57 56 55 54 53 51 50 50 49 48 47 46
38 39 40 41 42 43 43 45 46 47 46 47 47 48 48 48 48 48 48 48 48 48 47 48 50 49 49 50 51 53 55 54 54 54 51 49 48 49 49 48 48 47 46
37 38 39 40 40 40 41 42 43 44 44 44 45 46 46 45 45 46 46 46 47 47 46 46 46 45 45 47 47 47 47 48 46 46 46 46 45 45 45 45 43 43 42
37 38 39 39 39 40 40 40 40 41 42 42 43 43 43 43 42 42 43 43 43 44 44 44 45 44 44 44 45 45 45 44 43 43 43 43 43 44 43 42 40 39 38
37 37 38 38 39 39 40 39 39 39 39 40 41 41 42 41 41 40 40 41 41 42 42 42 43 43 43 44 44 43 43 42 41 41 42 42 42 43 42 39 37 37 37
36 36 36 36 37 39 39 38 38 38 39 39 39 39 39 39 40 39 39 39 39 39 39 39 40 41 41 42 43 43 42 42 41 41 40 41 42 43 43 41 38 37 36
34 34 33 33 34 35 38 37 37 38 38 38 38 37 38 38 38 37 37 37 37 37 37 37 38 39 40 42 41 42 40 40 39 39 39 39 41 42 43 42 38 38 36
33 33 33 33 33 33 34 34 35 35 35 36 36 38 38 38 38 37 36 36 37 36 36 36 36 36 37 38 39 42 43 43 40 39 38 38 40 41 42 41 39 39 34
33 33 34 33 33 33 33 33 34 34 33 33 33 34 35 35 37 38 38 38 37 38 38 37 38 38 37 37 38 38 38 41 43 41 40 40 40 41 40 40 40 39 35
33 33 33 33 33 33 33 32 33 33 33 33 33 32 32 32 32 33 34 35 36 37 37 37 38 37 37 39 41 41 39 39 39 41 38 37 36 36 36 35 35 35 35
33 33 33 33 33 33 32 32 32 32 32 31 31 32 30 31 31 31 31 33 34 35 35 36 37 37 39 39 40 41 41 40 40 39 36 35 35 35 34 34 33 33 33

GFSMW_sfc_30mbdewp_132.txt.gz
Dewpoint
23 23 23 24 28 32 33 35 36 45 49 52 55 58 59 62 63 66 65 65 65 64 64 62 60 59 57 57 58 56 56 55 57 55 56 56 57 56 56 56 55 56 57
27 28 28 25 26 31 33 33 37 42 50 50 56 57 58 59 61 63 64 65 65 64 64 62 61 59 57 57 57 56 56 56 57 55 55 54 55 56 57 57 57 57 58
36 37 37 33 27 31 33 34 36 40 48 51 55 57 58 59 60 62 63 63 65 64 64 63 62 60 58 57 57 56 56 55 57 57 55 53 53 54 56 56 56 56 56
38 38 38 36 30 33 35 36 37 40 45 51 51 53 53 54 57 59 62 63 63 64 63 63 62 61 59 58 56 56 56 56 55 57 57 56 55 53 53 55 54 54 54
38 39 39 38 34 32 37 37 38 40 44 49 50 53 53 54 55 58 60 62 62 64 63 63 62 61 60 58 57 56 56 57 56 57 57 56 56 55 54 53 54 54 54
37 39 40 41 37 34 38 40 40 41 44 49 51 51 53 54 56 58 59 59 62 62 63 63 62 61 60 59 58 57 57 57 58 58 58 56 55 54 52 52 53 53 53
36 38 41 43 41 37 38 40 43 43 45 49 51 52 52 54 55 57 58 58 60 61 62 62 61 60 60 60 58 57 57 58 58 58 58 57 56 56 54 52 52 52 52
37 37 39 43 44 42 42 43 46 47 49 51 51 53 53 55 55 56 57 58 59 59 60 62 61 61 60 60 58 58 58 58 58 58 58 58 57 56 55 53 51 50 51
37 37 38 42 44 44 44 46 48 49 50 51 52 53 53 55 56 57 58 59 59 58 60 61 61 61 60 59 58 58 58 58 59 59 59 58 58 57 56 55 53 51 49
40 41 41 43 44 45 46 47 49 49 49 51 51 52 53 55 56 56 57 57 58 59 59 61 61 60 59 59 58 58 58 58 58 59 59 58 58 58 57 56 54 52 50
45 45 43 44 46 47 47 49 49 49 50 51 52 52 53 54 56 56 57 58 59 59 59 60 60 60 59 60 59 58 58 58 58 59 59 58 58 58 58 57 55 53 51
47 46 47 49 49 49 49 48 50 50 51 50 51 51 53 55 56 56 58 58 59 59 60 60 60 60 60 60 59 58 59 58 58 58 59 59 58 58 57 56 55 54 52
42 44 47 47 48 48 49 49 48 49 50 50 51 53 54 56 56 56 58 60 60 60 60 60 59 60 60 60 59 59 58 59 58 59 59 58 57 57 55 55 54 53 52
40 41 43 45 48 50 49 47 47 49 50 51 52 52 55 56 56 57 58 59 60 60 60 60 59 60 60 59 59 59 58 59 58 58 58 58 57 56 55 54 54 52 51
39 40 41 42 44 46 48 49 49 50 51 52 51 50 54 57 57 56 58 58 59 59 59 58 59 59 59 59 58 58 58 58 58 58 57 57 57 56 56 55 54 51 50
37 39 40 41 41 43 45 46 47 48 49 49 49 50 50 50 51 51 51 52 52 53 54 57 57 56 53 56 58 58 57 57 57 56 56 56 55 54 54 54 53 51 49
37 37 38 39 40 41 42 43 44 45 45 45 46 45 46 46 48 48 49 49 49 49 50 49 49 49 49 51 52 53 54 55 55 56 55 54 53 53 53 52 51 50 49
37 37 38 39 39 39 40 41 42 42 43 43 43 44 43 43 43 43 44 44 46 46 46 46 46 45 46 47 48 48 48 47 47 47 47 48 47 48 49 49 46 45 44
36 37 38 38 38 38 38 38 39 39 39 39 40 41 41 41 41 41 42 43 43 43 43 43 44 44 44 45 45 46 45 45 44 44 44 44 44 45 46 45 44 42 41
36 36 37 37 38 38 38 38 38 38 37 38 38 39 39 39 39 39 39 40 40 40 41 41 42 43 43 45 44 44 43 42 42 42 43 44 43 44 44 43 41 40 38
34 33 33 34 35 38 38 37 37 36 38 37 37 37 37 37 37 37 37 38 38 38 38 39 39 40 41 42 43 42 42 42 41 41 41 42 43 44 43 42 40 39 38
33 33 33 33 33 34 34 34 34 35 36 37 37 37 37 37 37 36 37 37 37 36 36 36 37 37 38 40 42 42 42 40 38 39 40 40 42 43 44 42 41 41 39
33 33 33 33 33 33 33 33 33 33 33 33 34 35 35 36 38 37 37 37 37 37 37 37 37 37 37 37 39 39 41 43 41 40 39 39 39 41 43 43 42 41 36
33 33 33 33 32 32 32 32 33 33 32 32 32 32 33 32 34 35 36 35 34 36 37 36 36 37 38 39 40 40 39 39 39 41 40 40 40 40 41 41 41 39 36
33 33 33 33 32 32 31 31 31 31 30 30 30 29 30 31 32 32 33 33 35 36 36 36 36 35 34 37 40 41 40 40 40 40 38 37 36 36 36 36 37 37 36
33 33 33 32 32 32 31 30 30 30 30 29 29 29 28 27 28 27 25 29 32 33 34 34 35 36 36 36 37 37 38 39 40 37 36 35 35 35 34 34 34 34 35